GFSNGP_700_spd_015.txt.gz
Wind_Speed
16 16 18 21 19 18 20 22 17 26 26 25 23 23 25 31 34 37 40 47 47 50 49 52 46 39 31 33 39 41 45 49 51 51 46 37 37 36 34 31 30 31 31 28
22 12 12 26 28 20 3 11 20 19 27 24 25 27 33 31 34 42 46 50 48 48 49 46 38 35 37 41 45 47 48 48 46 40 34 34 36 33 34 36 32 32 32 32
10 12 21 19 4 5 25 19 15 23 26 28 31 32 30 36 44 50 49 48 48 41 48 37 37 41 39 41 44 46 45 43 39 33 32 33 35 35 33 30 29 30 30 32
11 16 3 10 16 26 18 16 21 26 31 30 33 31 38 51 47 45 46 42 36 43 36 39 40 40 41 44 46 45 43 40 36 34 33 35 35 31 29 29 29 30 33 35
6 5 17 27 8 12 22 27 24 24 25 26 32 48 45 47 47 40 38 34 39 33 36 38 40 43 45 45 45 42 40 39 35 34 37 36 31 30 30 28 30 34 37 37
13 5 5 13 22 24 24 26 17 25 34 42 47 49 44 35 31 35 27 29 32 34 36 37 39 42 43 43 41 39 37 37 32 36 33 30 31 31 30 32 36 38 37 36
19 11 17 22 14 14 16 23 33 38 41 43 44 44 38 36 28 23 27 29 31 32 35 37 39 41 41 40 37 35 32 34 38 30 31 32 31 31 33 37 38 37 35 34
11 7 7 10 25 32 39 47 41 40 44 43 43 31 35 24 31 24 26 29 31 33 35 38 40 40 40 37 35 34 31 29 29 30 32 31 31 34 37 37 35 33 32 33
17 23 33 38 34 34 35 37 45 45 40 32 33 36 29 32 24 24 29 33 34 36 37 39 40 40 38 36 35 34 31 29 29 31 31 31 34 37 36 34 33 33 34 34
33 33 35 32 30 34 39 41 36 33 33 35 39 34 33 25 27 31 35 35 36 37 38 38 38 38 36 36 35 33 31 28 29 29 30 32 35 36 35 32 33 34 35 36
37 32 37 36 33 35 37 37 33 38 37 33 30 31 30 33 34 37 39 38 37 37 38 39 39 36 34 34 32 30 28 28 28 28 31 33 34 33 31 32 33 36 37 35
36 33 37 36 38 32 31 39 39 38 33 29 28 31 36 38 42 42 37 37 37 38 40 41 39 35 35 32 31 26 25 26 27 29 31 32 31 28 29 31 33 35 33 33
32 34 33 35 37 40 39 36 32 29 34 35 33 38 43 45 41 37 36 38 40 41 41 41 38 35 32 29 23 23 24 25 26 28 29 27 26 27 29 30 31 32 31 31
27 28 33 36 34 35 34 28 29 31 32 34 40 44 46 45 40 38 39 42 44 45 43 40 35 31 27 22 22 22 23 24 24 24 23 23 25 26 29 32 32 29 29 28
29 35 33 29 29 28 26 29 35 36 39 43 49 48 45 43 42 43 44 45 45 45 42 36 31 28 21 21 22 22 20 20 20 20 21 22 22 25 30 31 32 30 29 25
28 25 25 24 26 25 30 36 42 46 50 54 53 45 43 42 42 44 43 45 44 39 34 29 27 22 17 20 19 17 17 17 17 19 19 20 22 25 28 30 32 29 28 25
24 27 28 30 31 35 39 40 47 53 54 48 43 42 42 43 43 41 40 41 38 33 29 27 23 14 17 17 16 15 15 16 17 18 19 21 22 24 27 29 31 28 28 26
26 29 30 32 37 40 44 50 52 47 44 42 42 44 43 40 39 39 38 37 34 29 25 24 16 14 15 15 15 15 15 15 18 19 20 20 22 24 25 27 29 28 27 26
24 28 32 35 39 46 51 47 44 42 41 43 45 44 42 40 38 36 36 34 31 25 22 18 12 14 14 14 14 14 14 16 18 20 20 20 21 23 24 25 26 27 26 24
30 34 38 43 47 44 41 39 40 41 42 43 44 43 41 39 35 34 32 30 24 20 19 13 14 13 14 15 14 14 14 15 18 20 19 19 20 22 24 24 24 25 25 24
36 41 45 41 40 38 38 38 40 41 40 41 41 38 35 34 30 29 27 26 18 17 15 13 15 14 14 15 15 14 14 15 17 19 19 19 20 21 23 24 23 22 23 23
41 40 39 38 37 37 37 39 39 39 41 41 39 38 36 32 27 24 26 20 15 14 12 15 15 14 14 15 15 15 15 15 16 17 19 20 21 21 22 22 23 21 20 20
38 37 35 35 35 36 36 36 37 38 40 42 39 34 29 29 26 23 24 15 13 11 13 15 15 15 15 15 15 15 14 14 15 17 19 20 21 22 22 22 21 20 18 18
31 31 31 31 32 33 36 36 35 37 39 37 35 28 27 26 21 20 14 10 10 11 14 15 16 15 15 15 15 15 14 14 15 17 19 19 20 21 22 23 22 20 18 16
30 29 30 30 28 29 34 37 36 35 37 34 30 25 25 22 21 15 10 10 12 12 14 16 16 16 15 15 15 14 14 15 16 17 18 19 20 21 22 23 23 21 18 16
28 29 29 28 28 31 35 37 35 34 35 33 27 23 21 18 14 12 11 12 13 14 16 16 17 16 15 14 14 14 15 16 17 18 18 19 20 21 22 23 23 21 19 17
27 27 28 29 31 34 35 34 33 32 32 32 27 21 19 17 17 16 15 14 15 17 16 17 16 15 14 14 14 15 16 17 18 19 19 20 21 22 23 23 23 22 20 18

GFSNGP_700_spd_021.txt.gz
Wind_Speed
9 13 14 15 16 16 18 21 21 24 20 21 21 16 17 16 19 23 25 28 36 43 38 37 31 31 31 33 35 38 39 41 43 44 44 42 39 36 33 34 38 35 32 31
15 9 12 17 20 20 18 13 15 17 21 17 13 18 20 23 28 31 26 43 44 35 34 30 26 25 31 33 36 40 41 43 42 40 40 36 36 37 36 37 33 31 30 30
7 15 23 8 3 2 7 10 12 16 16 18 18 17 23 31 39 26 39 44 35 34 29 24 26 28 32 35 38 42 44 38 36 40 39 38 36 37 36 33 30 28 28 30
8 10 3 4 10 16 13 11 10 14 16 12 15 26 36 33 33 36 44 35 36 30 26 27 28 29 31 34 37 33 32 38 43 41 39 34 32 30 32 30 28 27 29 32
3 7 18 9 1 4 12 14 15 12 9 16 28 39 26 36 35 35 37 41 34 29 29 30 29 33 33 36 34 33 32 32 33 38 35 31 30 29 29 25 25 26 32 34
7 4 4 6 9 12 10 19 7 10 20 30 40 42 39 33 33 35 30 24 25 27 28 30 32 34 35 37 35 33 29 35 41 33 33 32 30 30 26 25 28 34 32 33
11 9 10 13 15 17 10 11 21 30 34 42 32 36 32 36 30 24 23 26 29 30 32 33 36 36 36 37 35 30 28 38 43 37 30 29 30 26 25 25 30 32 33 34
8 7 8 4 11 15 21 26 23 32 39 35 33 33 27 22 22 24 26 28 30 34 36 41 39 34 34 34 34 37 44 44 39 38 33 30 29 24 25 30 30 31 34 35
9 10 15 25 23 25 34 31 35 38 37 31 30 22 22 22 23 25 28 31 34 36 36 35 34 34 35 36 42 44 42 37 35 34 34 25 25 27 28 29 29 31 34 37
21 21 20 25 24 31 36 30 35 35 33 28 25 24 22 24 27 31 33 37 35 33 33 34 34 34 38 37 42 39 37 34 30 25 22 23 25 26 28 27 28 31 35 38
24 26 27 30 23 28 35 34 28 33 32 28 25 23 26 30 35 40 42 32 33 33 35 36 38 39 35 42 39 34 31 32 25 18 20 22 22 25 24 26 26 30 34 36
29 26 34 32 39 33 30 30 30 26 27 25 26 27 34 42 40 34 34 34 33 34 36 39 38 40 42 40 34 30 31 25 17 18 21 21 21 22 24 23 27 29 31 33
28 33 30 35 29 27 27 25 25 27 28 27 26 29 36 35 35 39 33 34 36 38 36 37 42 41 40 36 30 28 24 15 17 18 17 18 20 20 22 25 28 29 31 32
31 27 29 20 24 25 24 25 26 27 24 30 39 43 42 40 41 41 41 42 43 43 42 40 39 39 37 32 28 23 15 16 15 15 15 17 19 21 22 24 27 29 31 31
25 23 22 24 24 21 23 23 27 31 36 40 42 40 41 40 41 41 41 42 43 41 38 36 37 36 32 27 22 14 15 14 14 14 14 16 19 20 21 23 25 27 28 30
25 25 25 19 19 21 23 29 34 37 40 39 41 40 38 39 40 39 40 41 39 37 36 35 34 32 27 22 15 16 15 14 14 14 14 17 19 20 21 23 25 26 27 27
24 20 16 17 20 24 30 34 37 37 38 39 37 37 38 38 38 40 40 40 39 37 35 33 31 28 23 16 15 15 15 15 14 14 15 17 18 19 20 23 24 26 27 26
17 16 17 22 25 31 34 35 35 37 36 35 35 35 38 37 38 40 40 40 36 32 30 28 27 23 19 16 15 15 15 15 15 14 15 17 18 19 21 22 24 25 26 26
16 18 22 24 29 33 34 35 36 34 32 32 31 34 37 35 39 40 41 36 31 31 27 27 24 21 17 15 15 14 15 14 14 14 15 16 17 19 21 22 23 24 25 25
18 22 25 28 32 33 34 33 33 33 31 30 31 34 36 36 39 40 39 33 31 30 25 26 22 19 16 16 15 14 14 14 14 14 14 15 16 18 20 20 21 23 24 25
22 26 28 32 32 32 32 32 33 32 30 29 31 35 39 38 38 40 37 33 30 26 25 22 19 18 16 16 16 15 14 15 15 14 14 15 16 17 18 20 21 23 24 24
27 31 32 31 33 33 33 33 32 32 31 31 33 37 39 38 36 38 33 31 27 25 22 18 17 17 17 17 17 17 16 15 15 15 14 15 16 17 18 20 21 22 23 24
33 32 32 33 34 34 33 31 31 30 31 32 35 37 38 36 35 36 32 28 25 21 17 15 17 17 17 18 18 17 16 16 15 15 15 16 17 18 18 19 20 22 23 23
30 32 35 35 35 33 31 30 31 30 31 33 35 36 37 36 31 31 29 26 23 20 17 16 16 18 18 19 18 18 17 16 15 15 16 17 18 18 19 19 20 21 22 22
33 33 33 34 34 31 30 30 31 33 35 36 36 35 33 32 32 30 28 24 24 23 20 19 19 19 20 20 20 18 16 16 16 16 17 18 18 19 19 20 20 21 22 21
30 30 31 31 31 30 29 30 32 35 37 38 37 33 31 30 29 29 28 25 23 24 24 23 21 21 24 22 20 19 18 17 18 18 18 19 19 19 20 20 21 21 22 21
28 29 28 27 25 26 28 33 36 38 37 38 36 31 30 29 29 28 28 26 24 23 23 22 23 24 22 23 22 20 19 19 20 20 20 21 21 21 21 21 22 22 23 22

GFSNGP_700_spd_024.txt.gz
Wind_Speed
6 9 9 11 14 14 16 18 20 21 21 17 17 10 12 14 21 25 30 37 45 38 44 39 36 34 31 34 34 41 40 43 43 45 47 42 46 42 39 36 36 34 32 31
12 3 9 19 20 14 13 16 16 13 15 13 15 15 20 26 27 36 42 33 39 40 40 39 27 27 30 31 39 41 41 43 45 38 40 40 47 42 37 37 37 36 32 30
5 12 21 4 2 5 8 8 10 12 14 13 15 17 21 29 35 39 36 38 35 37 29 26 27 26 29 33 34 38 35 43 35 39 42 46 47 43 37 37 37 36 32 30
8 10 2 1 16 14 14 8 10 11 12 11 10 18 24 40 34 35 35 37 35 26 28 32 32 33 30 34 38 44 46 41 46 46 37 42 44 43 40 36 37 33 30 33
4 4 15 6 6 6 10 17 10 13 13 18 24 27 34 35 37 33 35 31 29 30 30 30 34 28 34 39 43 37 39 44 45 38 31 38 48 46 38 34 32 29 30 35
8 3 4 2 8 14 17 15 13 16 19 25 36 39 42 38 34 35 33 31 26 27 30 30 31 39 45 47 35 32 42 40 41 38 33 40 46 39 28 32 31 32 32 29
9 7 9 10 11 12 6 8 20 24 30 34 35 39 36 36 33 27 23 22 24 29 32 36 41 45 43 40 35 36 41 46 49 47 41 42 41 34 32 29 31 32 28 29
6 7 9 1 8 12 13 23 28 33 35 31 35 33 31 28 26 20 22 26 29 34 37 38 37 39 41 38 42 47 45 40 40 36 34 30 32 29 25 31 30 28 29 31
11 9 8 16 13 23 27 30 33 32 37 34 31 27 26 24 20 23 28 39 44 38 40 35 35 35 34 35 52 47 45 41 33 27 26 31 17 21 30 29 27 28 29 32
21 24 18 24 32 30 35 34 32 33 33 29 25 25 23 24 28 37 43 41 35 41 33 32 32 35 41 51 47 44 42 35 29 28 26 21 18 22 26 25 25 27 30 33
24 24 23 29 31 28 35 30 38 28 24 24 23 22 27 32 37 40 38 35 38 32 35 39 41 39 44 44 43 41 36 31 28 22 15 17 20 21 21 23 25 27 29 31
25 24 27 32 30 35 31 35 28 22 22 22 24 27 35 38 38 38 40 37 39 37 41 44 45 44 42 40 39 36 32 29 20 17 18 18 17 18 20 22 24 26 27 28
24 31 30 31 31 29 26 23 22 21 22 25 30 35 37 38 39 38 38 39 39 41 44 43 41 40 39 37 36 32 28 22 17 17 15 15 16 19 21 22 24 25 26 28
30 26 28 25 29 24 24 20 20 21 25 31 35 37 37 38 37 37 39 40 41 43 43 43 39 38 37 34 32 28 22 17 16 15 15 14 16 19 21 22 24 26 28 28
25 25 25 25 23 24 19 20 22 27 32 35 35 36 36 35 36 37 40 40 41 41 41 40 36 33 32 30 26 23 17 16 16 15 15 15 16 19 20 22 24 26 27 28
24 23 23 21 20 18 20 22 27 32 34 34 36 36 34 33 33 36 38 39 40 40 39 33 32 30 29 26 23 18 18 16 16 15 15 15 17 18 20 21 24 25 26 26
21 21 22 19 17 19 22 27 31 33 34 35 35 35 33 31 31 34 36 38 39 39 35 32 31 28 27 24 21 18 16 16 16 15 15 15 16 18 19 21 23 24 25 26
20 21 17 17 18 22 27 31 34 34 35 35 36 33 31 30 32 35 38 39 38 37 33 32 29 26 25 22 19 18 16 16 15 15 15 15 16 17 18 20 21 23 24 26
17 16 16 18 24 29 31 33 34 35 34 35 35 33 32 31 34 37 38 38 38 37 34 29 27 26 22 20 18 19 17 16 15 15 15 15 15 16 17 18 20 21 23 25
14 15 19 23 28 31 34 33 34 34 34 35 34 33 33 33 36 37 36 35 36 36 33 31 27 23 19 18 18 19 17 17 16 16 16 15 15 15 16 17 19 20 22 24
17 20 25 30 32 34 33 34 35 34 34 33 33 33 33 34 36 36 35 34 33 33 30 29 25 19 18 18 17 17 18 17 17 17 16 15 15 15 16 17 19 20 22 23
22 28 31 33 33 33 33 34 35 34 32 31 30 31 33 34 35 35 33 32 32 31 28 26 22 18 18 18 19 19 19 19 18 18 17 16 15 16 17 18 19 20 21 22
30 32 32 32 33 35 34 33 33 32 30 29 30 33 34 35 36 35 34 29 29 29 27 25 23 21 20 19 19 19 20 20 18 18 17 17 16 17 17 18 19 20 20 21
29 29 31 32 33 35 35 33 32 31 30 32 32 36 37 37 36 32 32 31 29 28 26 25 24 23 22 20 20 21 21 21 19 18 17 17 17 18 18 18 18 19 20 20
29 30 31 31 32 32 32 29 28 29 28 32 37 36 36 36 33 32 32 30 29 28 26 24 24 25 25 24 23 24 24 22 20 19 19 19 19 19 19 19 20 20 20 20
27 28 30 29 30 29 28 28 29 29 33 37 38 35 35 34 31 31 32 31 30 29 26 24 25 25 24 26 26 27 25 24 22 21 21 21 21 21 21 21 21 21 22 21
29 29 30 32 33 33 35 34 33 32 34 36 35 34 35 33 32 32 31 30 29 28 27 26 26 26 25 24 24 25 26 25 24 23 23 23 23 23 23 23 23 23 23 23

GFSNGP_700_spd_027.txt.gz
Wind_Speed
8 7 9 9 11 12 14 15 15 17 9 4 14 16 15 18 19 20 23 30 41 46 41 39 41 40 38 36 37 38 42 41 45 45 54 53 47 49 43 37 41 42 41 38
5 6 8 14 13 3 2 4 9 7 8 15 14 19 18 20 23 26 31 46 44 39 39 40 38 37 35 32 32 32 37 44 46 48 49 51 47 47 30 33 39 42 43 38
3 7 12 3 4 5 8 9 9 10 10 18 21 26 26 27 27 31 42 44 39 38 36 31 32 34 36 38 42 39 41 45 47 52 46 47 47 38 34 39 44 44 43 36
5 7 1 6 9 13 14 9 12 11 17 18 22 25 25 26 32 39 40 37 35 31 25 26 30 36 42 44 44 46 49 55 49 46 46 40 37 34 41 30 39 41 36 32
4 4 13 8 6 11 8 11 16 19 22 22 24 24 28 35 38 37 34 30 24 21 28 32 37 42 44 47 50 52 47 45 45 46 47 50 44 45 36 39 45 37 35 30
7 4 6 9 5 10 14 15 18 17 19 23 26 32 35 37 36 35 32 26 27 32 33 37 41 44 46 45 43 44 45 42 50 46 43 42 40 35 32 35 35 32 28 26
13 8 9 11 17 17 11 14 14 18 27 29 34 34 35 35 31 28 26 29 34 36 39 39 38 40 39 41 42 43 44 47 47 45 42 35 30 23 25 26 26 29 26 27
10 8 9 8 12 17 19 21 22 27 32 34 31 33 34 27 26 27 31 34 37 40 41 42 41 41 40 44 45 47 46 45 43 40 33 26 23 28 21 21 28 27 26 25
12 10 21 23 21 25 26 24 28 29 33 30 34 32 25 25 26 27 33 37 40 41 41 40 41 40 42 43 43 40 40 39 39 34 29 26 21 19 22 24 23 24 25 26
17 19 21 24 30 32 31 35 29 32 31 33 28 23 24 25 28 33 36 38 39 39 40 41 40 39 39 41 40 39 38 36 33 30 26 17 14 18 20 20 22 23 24 25
28 20 24 28 29 33 35 32 34 36 33 25 22 23 25 28 32 34 36 37 37 38 40 40 40 39 41 41 40 38 34 33 29 25 17 17 16 16 17 19 21 22 23 25
37 28 26 28 30 33 33 32 35 29 22 19 23 25 28 31 33 35 36 36 36 37 39 40 39 39 40 40 37 34 32 29 25 17 16 15 14 14 17 18 19 21 22 24
29 30 29 28 27 29 31 31 27 22 21 22 24 27 30 32 34 35 35 33 34 37 39 39 39 42 39 34 34 30 28 25 19 16 15 14 14 15 15 16 19 21 23 25
32 30 28 24 27 28 24 23 23 20 20 23 28 31 32 34 35 34 32 32 34 36 38 39 40 38 34 34 30 27 24 20 17 16 15 14 14 15 17 17 19 21 23 24
29 28 26 28 25 23 22 20 19 19 22 28 31 32 33 35 35 33 31 31 34 37 38 40 38 34 33 30 26 24 22 17 16 16 15 15 15 15 16 17 19 22 23 24
21 24 27 24 22 20 19 19 19 22 28 31 33 33 34 35 35 33 31 31 35 37 38 39 36 33 31 26 25 23 20 17 16 16 15 15 15 14 15 16 17 20 21 23
25 25 24 20 18 18 17 18 23 28 31 33 34 34 35 36 35 33 32 33 35 37 37 38 36 31 28 25 23 20 17 17 16 16 16 15 15 14 14 15 16 18 20 22
26 20 16 18 17 15 17 23 28 32 34 34 35 35 36 35 34 33 33 34 35 36 35 35 34 30 27 25 21 18 17 17 16 16 16 16 15 14 14 14 15 17 19 21
18 17 15 15 15 19 24 29 33 35 33 34 35 36 35 33 33 33 33 34 35 35 33 32 31 28 26 22 18 18 17 17 18 17 17 17 15 15 14 14 15 16 18 19
10 11 14 18 21 25 30 33 34 33 34 36 36 34 32 30 31 33 34 35 34 34 32 30 28 26 23 19 18 18 18 19 19 18 17 17 16 15 15 15 15 16 17 18
12 19 22 22 26 31 33 32 33 34 34 33 33 31 30 30 33 35 35 35 33 32 29 27 26 24 22 19 18 18 18 19 19 19 18 17 17 16 15 15 16 17 17 18
20 22 24 29 32 30 30 31 31 33 33 31 30 28 29 30 33 34 35 34 31 29 29 27 25 24 22 21 20 20 20 19 20 20 19 18 18 17 16 17 17 17 18 17
23 26 29 28 29 29 28 29 31 33 32 29 27 26 25 33 36 35 33 30 29 29 28 27 26 24 22 22 22 23 21 21 21 21 20 19 18 18 18 18 18 18 18 18
27 26 27 28 27 28 30 29 30 30 30 28 27 29 32 34 33 33 33 31 31 31 30 28 27 25 23 22 22 23 24 23 23 24 22 21 20 20 20 20 20 19 19 19
26 27 27 28 29 30 30 31 32 31 31 30 30 31 32 33 33 33 33 32 32 31 30 27 25 25 24 24 24 24 24 25 26 25 24 23 23 22 22 22 22 22 21 20
25 27 29 32 32 31 33 33 33 33 33 31 31 32 33 31 32 34 33 32 31 29 28 27 26 24 25 26 25 26 25 25 24 25 25 24 24 24 25 25 24 24 24 25
28 29 31 33 33 35 37 36 35 33 33 33 34 34 33 33 35 34 31 30 29 28 27 26 26 27 27 27 28 27 27 27 27 27 28 26 25 25 26 26 27 27 27 28

GFSNGP_700_spd_030.txt.gz
Wind_Speed
8 9 11 12 11 11 14 15 12 15 15 16 20 19 18 18 21 23 25 27 30 37 44 44 44 43 40 39 41 41 42 44 47 46 48 51 47 46 46 46 39 37 29 32
11 13 13 11 12 13 6 7 9 8 11 14 18 17 17 19 22 24 29 32 36 42 42 42 41 39 40 41 41 41 43 44 46 52 50 41 45 46 46 40 30 32 30 34
6 10 10 13 12 12 9 12 14 17 19 17 17 17 17 21 27 31 32 37 42 43 43 38 36 38 38 37 43 45 49 51 49 38 38 41 50 46 43 39 39 34 42 32
5 6 1 7 10 11 14 19 20 20 19 19 18 22 26 28 30 33 39 42 42 42 35 35 35 34 38 44 48 47 46 42 38 40 41 45 47 44 39 35 29 24 29 30
5 7 10 12 16 16 13 15 18 19 22 22 25 27 27 30 32 37 38 39 35 32 32 33 35 39 43 44 43 41 39 38 41 42 45 43 41 37 32 27 23 25 28 27
9 4 6 9 11 14 16 22 19 16 18 17 19 26 31 36 39 35 34 33 30 31 33 35 38 40 40 40 40 40 41 42 43 42 42 40 36 29 18 23 25 21 22 29
18 10 8 14 13 14 10 14 11 15 16 18 25 27 30 30 33 33 29 29 30 32 34 37 39 41 40 39 36 37 39 39 39 40 38 36 32 28 24 22 18 20 28 27
12 10 10 10 8 16 19 21 21 24 23 28 30 31 31 33 29 27 26 29 31 33 36 37 38 39 39 39 38 37 36 36 38 38 36 34 30 23 15 17 22 23 24 25
15 10 17 22 23 23 22 22 29 30 30 30 31 32 31 28 25 24 28 30 32 34 35 35 37 39 40 38 37 37 37 37 37 35 33 29 23 16 16 18 19 21 22 23
26 27 26 25 25 26 25 29 28 29 35 29 33 31 26 23 23 26 29 31 33 34 34 35 36 38 38 37 39 39 36 34 34 32 28 23 17 17 16 17 19 20 21 22
30 31 30 29 28 30 28 30 30 35 31 34 31 26 22 22 26 28 30 32 33 34 33 34 36 38 38 37 37 35 34 34 30 28 25 18 18 16 15 15 18 19 21 23
34 30 32 34 29 27 27 29 34 31 37 28 25 21 22 26 29 30 32 33 34 32 32 33 35 37 39 38 36 35 33 29 26 25 20 18 16 16 15 16 17 18 20 23
28 27 27 28 28 27 28 30 30 34 30 24 20 22 25 29 30 32 33 34 34 33 33 33 35 37 39 37 34 35 31 26 25 23 18 17 17 15 14 15 17 17 19 21
29 29 30 29 27 27 31 32 26 25 21 19 22 25 29 32 32 33 34 35 35 34 33 34 36 37 37 37 33 32 27 25 23 21 19 18 17 16 15 14 14 15 17 19
26 27 26 28 28 32 25 22 22 18 18 21 25 30 32 33 33 33 35 35 35 34 34 35 37 36 36 35 32 29 26 24 22 20 18 17 17 16 15 15 15 14 15 18
26 24 26 27 33 25 27 18 14 16 21 25 29 32 33 33 34 35 36 36 36 34 34 36 36 35 34 33 30 27 25 22 20 19 18 17 17 16 16 15 15 15 15 17
23 26 27 34 26 18 12 12 16 20 24 30 33 33 33 35 36 36 35 34 33 33 33 36 35 35 32 31 29 26 23 21 20 19 19 18 18 17 16 16 15 14 14 16
24 26 28 29 13 11 13 15 19 25 30 33 34 34 35 36 36 35 34 32 32 33 34 36 35 33 30 29 26 23 20 20 20 20 19 19 19 18 17 16 16 15 14 15
24 21 10 8 10 12 15 20 26 31 34 34 34 34 35 35 35 33 32 32 33 34 35 35 33 30 28 27 24 21 19 19 19 20 20 20 19 18 18 17 16 16 15 15
12 8 8 11 16 22 25 28 32 32 31 32 32 33 34 33 33 32 31 31 34 35 33 31 30 29 27 26 23 21 19 19 20 21 20 20 19 19 18 18 17 17 17 17
7 12 17 20 23 26 29 32 30 29 28 29 31 32 32 31 30 30 30 34 32 31 30 29 29 28 27 25 24 21 20 21 20 20 20 20 20 19 19 19 19 18 18 18
15 19 23 25 27 30 28 28 28 27 28 29 30 31 31 30 28 29 32 33 30 30 29 29 29 29 27 26 24 22 20 21 22 21 21 22 21 20 20 20 20 20 20 19
21 23 26 29 28 27 26 26 28 30 32 33 34 32 31 31 32 32 33 32 31 31 31 30 30 28 27 25 23 22 22 22 21 23 23 23 24 23 22 21 21 21 22 21
26 27 26 27 26 26 28 30 32 32 34 35 34 33 34 33 32 33 35 34 33 34 33 31 30 28 27 26 25 24 23 23 23 23 25 26 25 25 24 23 23 22 22 23
24 25 25 26 28 30 33 35 37 37 38 37 35 35 35 35 36 35 35 35 35 35 32 30 29 27 26 26 26 26 26 26 25 25 25 25 25 25 25 24 24 24 23 24
23 25 28 30 31 33 36 39 41 42 41 40 37 35 35 35 35 34 35 36 36 33 30 28 27 27 27 27 27 27 27 27 27 28 28 28 28 27 27 26 26 25 27 29
28 30 33 35 37 39 42 45 45 45 42 42 43 40 39 38 35 35 34 35 32 29 27 26 27 28 29 29 29 29 30 29 28 27 29 29 29 28 27 26 28 29 30 29

GFSNGP_700_spd_033.txt.gz
Wind_Speed
10 9 9 11 13 15 17 17 15 17 18 18 23 24 25 25 21 23 25 27 29 32 36 40 42 42 43 42 42 42 43 44 47 49 50 48 45 45 45 45 46 42 35 35
12 13 14 17 18 19 20 23 24 23 24 20 21 23 24 24 24 26 27 29 33 35 37 40 40 43 40 41 41 43 45 47 46 46 45 44 45 45 45 43 41 36 30 24
7 14 16 16 21 24 19 18 16 20 18 18 18 21 24 25 25 25 28 31 34 38 40 41 39 38 40 41 42 44 44 45 45 45 44 43 41 41 40 37 33 28 22 21
6 7 1 14 14 13 19 19 19 21 23 23 22 21 23 24 26 29 33 36 39 40 38 36 35 38 39 40 42 43 44 45 45 43 42 38 39 37 34 29 24 19 21 23
6 11 13 11 16 17 19 20 18 20 20 20 22 23 23 23 28 32 35 37 35 35 33 34 36 38 38 39 41 42 44 43 40 40 39 38 38 35 33 29 23 27 22 22
10 5 6 7 11 13 16 21 16 11 13 17 21 25 22 28 31 33 34 36 32 31 32 35 36 37 38 39 40 41 39 37 38 39 39 38 36 35 31 27 23 22 20 25
22 13 11 16 17 16 12 11 14 16 16 18 23 25 27 34 32 34 33 27 29 30 34 36 37 38 38 38 38 38 36 38 40 40 39 37 35 32 29 21 20 20 23 24
15 11 13 17 18 20 12 20 21 19 20 23 22 27 33 30 30 28 26 27 29 32 34 36 37 37 38 37 38 38 38 39 39 38 36 35 32 29 22 18 19 21 21 23
16 10 15 11 12 23 25 24 24 22 24 23 29 30 35 28 23 22 24 27 31 33 34 36 37 37 36 36 37 38 39 39 39 38 35 31 28 24 21 20 19 19 21 21
27 27 26 27 29 30 31 27 28 26 28 31 31 31 27 22 20 22 26 30 31 33 34 35 36 36 36 36 37 39 38 37 38 36 30 28 25 21 19 18 18 19 20 21
29 28 31 30 30 30 28 32 30 27 29 29 34 21 21 19 21 24 28 31 33 34 34 36 36 35 37 37 38 39 39 37 37 32 28 26 23 21 19 18 18 18 19 20
32 27 30 31 30 31 33 30 30 29 28 33 27 19 18 19 22 27 31 33 34 34 35 36 36 36 36 37 38 39 38 36 35 29 27 24 22 21 19 18 18 18 18 20
31 28 30 30 29 28 30 29 28 26 33 26 15 15 18 21 26 31 34 35 35 35 36 37 37 36 36 38 38 38 37 35 32 29 26 23 21 20 19 19 19 18 18 19
29 31 30 27 28 28 28 29 34 34 28 14 15 17 21 25 30 33 34 34 35 36 36 36 36 35 36 37 37 36 35 34 31 28 25 23 21 21 20 18 17 18 18 18
26 26 25 26 28 28 28 32 36 22 12 12 16 20 25 31 33 33 33 35 36 36 34 34 35 35 35 36 36 34 33 32 29 27 24 23 21 20 20 18 18 17 17 17
29 29 28 28 28 28 30 33 16 10 10 14 19 25 31 33 32 33 34 35 36 34 33 34 34 34 36 36 34 32 30 30 27 23 22 22 22 21 20 19 18 18 17 17
26 26 26 26 31 34 30 15 10 10 14 19 25 30 32 31 32 33 35 35 34 34 34 34 34 36 34 32 30 29 29 28 24 22 22 22 21 20 20 20 19 19 18 18
24 21 26 28 24 15 9 6 12 16 20 26 31 31 30 31 32 34 36 35 33 32 32 34 35 33 30 30 30 28 27 26 24 22 22 22 21 21 20 20 20 20 19 19
17 19 18 12 9 7 13 17 17 22 27 29 29 30 30 32 34 36 36 33 32 30 32 34 32 31 30 30 30 28 26 25 24 23 23 23 22 22 22 21 20 20 19 19
8 7 7 8 14 17 18 20 24 28 30 31 31 30 33 34 36 36 35 33 29 33 36 34 33 32 32 32 30 29 27 25 24 23 24 23 23 23 23 22 21 20 20 21
12 15 17 17 20 22 26 30 33 32 31 30 30 33 35 36 36 37 35 33 31 33 34 33 33 32 32 33 31 29 27 25 24 23 24 24 24 23 22 22 22 22 22 22
11 14 17 21 24 27 31 30 30 30 29 31 34 36 38 39 36 35 35 35 34 34 35 34 34 35 35 34 31 29 27 26 25 24 25 25 25 26 25 24 23 23 23 23
15 18 22 26 29 28 27 28 29 31 34 36 37 38 39 40 39 38 38 34 36 36 36 35 35 36 34 32 30 28 27 27 26 26 26 26 27 28 27 26 26 25 24 24
21 25 25 25 26 27 29 31 34 36 38 40 41 42 43 42 40 37 39 37 37 37 36 36 36 35 32 31 29 28 27 27 27 27 27 26 27 28 28 28 27 27 26 26
23 25 26 27 29 31 34 37 40 42 44 45 46 45 43 41 41 41 41 40 40 39 37 36 35 31 30 29 28 29 29 29 29 29 29 29 30 31 30 29 29 30 30 28
24 25 27 31 35 38 41 44 46 47 48 49 48 44 41 39 42 43 39 37 36 35 33 34 32 29 28 28 29 30 31 31 32 32 32 31 30 29 30 31 29 29 29 29
27 30 33 37 40 43 45 46 47 48 48 47 47 44 42 41 34 30 31 33 34 35 32 29 29 27 27 29 29 30 30 30 30 30 30 30 29 27 26 29 26 24 25 27

GFSNGP_700_spd_036.txt.gz
Wind_Speed
14 11 10 11 13 15 18 19 18 23 23 18 17 17 20 22 25 27 27 27 28 29 31 36 37 35 36 36 38 40 42 43 45 46 47 47 46 44 42 39 38 36 34 31
14 15 14 17 18 20 23 25 26 25 26 20 18 19 22 25 27 28 27 28 28 30 36 38 35 34 35 37 39 41 43 45 45 45 45 45 44 42 37 37 34 33 30 24
8 14 17 19 24 25 27 28 27 25 19 17 17 17 18 20 23 26 26 27 29 34 35 35 34 34 35 38 41 43 44 44 44 45 45 43 42 41 39 36 33 32 26 24
6 7 2 16 19 17 19 20 25 24 21 20 20 20 21 22 24 25 25 27 32 34 35 35 33 33 36 39 40 41 42 43 44 44 43 41 42 41 38 35 32 29 25 26
6 9 17 18 19 19 19 21 20 22 21 20 20 19 21 22 24 25 25 30 34 34 33 31 32 34 37 39 40 41 42 43 42 42 41 40 40 39 36 33 31 29 21 20
11 5 6 10 12 11 18 27 20 16 12 17 18 21 18 19 24 27 30 35 30 30 29 31 33 35 37 39 40 41 41 40 40 40 40 39 40 37 34 31 29 22 19 21
20 13 10 16 18 18 12 14 10 13 20 20 22 21 23 21 27 32 37 32 27 27 29 31 34 37 38 39 40 40 40 39 40 40 39 39 39 35 30 28 23 21 21 21
10 9 11 12 15 16 15 14 16 26 25 23 21 23 23 24 31 35 27 25 24 26 29 33 36 38 39 39 40 39 39 39 40 40 39 38 37 32 28 25 22 21 19 19
13 9 16 22 24 20 20 26 28 30 27 25 25 26 27 36 31 33 25 23 23 26 31 34 37 38 38 39 39 40 39 39 40 39 38 37 35 30 27 23 22 20 18 19
24 24 24 24 25 26 29 29 31 29 27 29 25 29 32 34 40 25 21 20 24 29 33 35 36 37 38 39 40 40 40 39 39 39 38 35 32 29 26 22 20 19 18 18
28 27 27 25 26 27 28 29 28 28 31 27 26 30 32 36 21 17 16 21 28 32 34 35 35 36 38 39 39 38 38 38 37 37 36 34 31 29 25 22 20 18 18 19
28 23 26 26 27 27 29 29 29 29 27 26 27 36 28 22 16 13 19 27 31 34 34 35 36 37 37 37 36 36 36 36 36 35 34 32 29 26 24 22 20 19 18 18
29 28 29 29 28 28 27 26 25 24 25 31 31 29 25 14 13 18 26 31 34 33 34 36 36 36 35 35 35 35 36 36 34 33 33 31 27 24 23 20 21 20 19 19
26 26 26 26 28 27 26 25 24 27 31 30 27 18 9 11 17 24 30 32 32 33 34 35 36 35 35 34 34 35 35 33 31 31 31 28 24 22 22 21 19 20 20 19
28 29 28 28 28 27 27 27 29 30 29 27 15 9 12 17 23 29 31 30 31 33 34 35 35 33 33 34 34 33 32 31 30 29 28 25 23 22 22 21 20 19 19 19
30 30 27 26 24 24 24 27 29 29 19 9 9 15 19 23 28 30 30 30 32 33 34 34 33 32 33 34 33 32 31 31 29 28 27 24 23 22 22 22 21 20 19 19
25 25 23 22 21 25 24 27 20 14 7 13 18 21 25 28 30 29 29 31 33 34 34 36 32 32 34 33 33 33 32 31 29 29 27 24 23 22 22 22 22 22 20 20
21 19 17 17 21 21 16 13 8 14 18 21 23 26 28 28 27 28 31 33 34 35 35 34 33 35 35 34 34 34 33 32 30 29 28 25 24 23 22 21 22 22 21 21
13 14 15 13 11 9 9 16 20 23 25 26 26 26 26 25 29 32 35 38 37 37 35 34 35 34 34 34 34 34 34 33 30 29 27 26 25 24 23 22 22 22 22 21
8 7 8 9 14 19 22 23 24 25 26 25 26 27 28 32 35 37 38 41 38 35 37 36 36 37 36 36 35 35 34 32 31 28 27 26 26 26 25 24 23 24 23 22
11 14 18 21 20 21 22 26 29 29 29 31 31 33 34 35 37 39 41 43 39 37 39 37 38 38 37 36 36 35 33 31 30 28 27 26 26 27 27 26 26 26 25 24
11 14 15 16 18 22 26 27 28 29 29 31 33 36 39 41 44 45 44 42 41 39 38 37 36 38 38 37 36 35 32 29 28 27 26 25 26 27 27 28 28 28 28 26
11 13 16 20 22 23 24 26 28 30 32 35 39 42 45 46 47 47 47 43 41 39 40 41 40 40 39 37 36 33 29 28 27 26 26 26 27 28 29 29 30 29 28 28
16 19 20 21 23 24 26 29 33 35 39 42 44 45 46 48 48 45 43 42 40 42 42 37 35 34 35 33 33 30 27 27 28 28 29 30 30 29 29 30 31 32 31 30
18 20 22 24 27 30 32 36 40 43 44 45 46 47 45 44 45 45 42 40 39 35 31 32 35 36 34 30 30 29 26 28 29 30 30 30 30 31 31 30 30 30 30 29
22 24 26 29 33 37 41 43 45 46 48 50 50 49 48 47 43 41 38 34 31 31 32 33 33 33 31 28 28 26 26 27 28 28 28 28 29 29 29 28 28 26 28 28
25 27 29 34 38 42 44 46 48 50 51 52 53 52 50 48 43 38 34 31 30 30 32 30 30 31 29 28 28 25 26 27 27 27 27 28 28 28 28 25 25 26 26 24

GFSNGP_700_spd_042.txt.gz
Wind_Speed
20 17 15 14 13 18 22 20 14 17 17 14 15 19 20 18 17 20 24 28 30 33 33 33 33 36 35 33 33 35 31 30 32 34 36 38 39 40 40 41 40 40 40 40
17 19 20 20 19 19 20 21 24 24 27 21 21 17 18 17 16 18 19 24 29 32 33 32 33 36 32 34 34 28 27 31 33 35 37 38 39 40 41 41 41 41 40 38
7 14 15 17 24 26 27 26 27 24 21 23 22 17 17 17 17 17 17 20 26 31 31 31 34 34 33 34 29 26 29 32 34 36 37 38 40 41 41 41 39 39 39 35
6 4 3 13 16 15 17 18 21 22 23 22 18 17 17 18 17 17 19 22 25 29 29 32 35 37 35 28 23 26 30 33 37 37 38 40 41 41 41 39 38 38 36 31
5 7 12 16 17 16 17 16 18 20 18 18 16 16 14 14 18 19 20 21 25 27 30 33 38 35 37 28 24 27 30 35 36 37 39 41 41 40 39 37 37 36 33 28
8 4 4 5 8 11 15 11 7 7 11 12 11 13 13 22 20 19 20 21 25 28 32 35 39 30 23 21 24 27 33 35 37 38 41 41 39 38 37 37 35 33 30 27
16 10 7 12 13 10 2 5 15 15 14 16 17 22 25 23 19 19 22 22 25 29 33 35 37 23 18 22 25 30 33 36 37 39 40 39 36 36 35 35 34 32 29 26
7 7 5 1 5 6 12 18 16 15 18 20 26 28 25 22 22 23 25 27 29 33 35 31 27 16 20 26 26 30 34 35 36 38 38 36 34 34 34 33 31 30 27 24
7 4 9 16 14 16 19 21 20 20 23 25 27 28 28 29 28 26 29 34 38 35 26 18 15 18 22 23 28 31 33 35 36 37 35 33 33 33 32 31 29 27 26 23
14 11 13 19 20 21 22 22 23 25 26 29 31 31 30 27 28 30 33 35 35 33 17 15 18 18 21 26 29 31 33 35 36 33 31 31 31 30 29 28 28 25 23 21
17 17 18 19 20 23 25 26 27 28 28 28 29 30 28 29 29 32 34 36 29 10 13 14 16 21 25 27 29 32 34 35 32 32 31 29 29 29 29 27 25 24 23 21
18 18 20 22 25 26 26 26 25 27 27 26 25 24 26 27 33 34 32 24 12 10 14 16 19 23 26 28 31 33 34 32 32 31 30 28 29 29 28 25 24 23 22 22
20 21 24 26 24 24 25 27 28 27 25 24 25 25 27 29 29 28 15 11 16 16 17 19 22 25 27 30 31 33 33 31 32 31 29 29 29 29 28 26 24 23 22 22
24 23 22 21 25 28 27 26 24 23 20 21 23 27 28 25 15 12 17 18 18 18 19 22 24 26 29 31 34 34 31 32 32 31 30 30 30 29 28 27 26 24 22 22
23 23 25 27 25 23 21 19 19 19 20 21 19 15 16 15 17 21 23 21 18 20 21 24 28 30 32 34 34 33 33 32 32 32 32 31 30 30 29 28 27 24 22 22
24 22 20 20 18 18 18 14 14 14 13 13 11 11 16 20 20 17 18 19 19 20 25 28 30 34 36 36 36 36 36 35 34 34 34 33 32 31 31 29 27 25 23 22
17 18 18 16 12 12 11 10 9 8 7 11 16 17 14 14 16 17 20 22 24 26 29 32 35 37 39 38 38 38 38 37 36 35 34 33 32 32 31 29 27 25 23 22
14 11 9 8 7 6 6 6 8 11 11 11 11 12 14 16 18 20 23 26 28 31 34 38 40 41 42 41 40 38 37 36 38 36 36 34 33 32 30 28 27 25 23 22
6 6 6 6 7 8 8 9 8 9 10 11 13 15 17 20 24 27 31 34 37 40 42 44 44 45 44 43 40 38 37 37 37 36 37 37 34 32 30 27 25 24 23 23
5 6 7 8 8 7 7 9 10 11 12 14 17 20 24 27 31 35 38 41 43 44 46 47 48 47 45 42 40 39 38 38 39 38 37 35 33 32 28 25 24 23 24 24
8 7 7 8 9 10 11 12 13 16 19 22 25 29 32 35 38 42 44 46 46 49 49 49 47 44 42 40 38 36 34 32 31 31 32 29 28 28 24 23 23 24 25 25
8 9 11 13 13 15 15 17 19 21 24 27 31 35 38 41 44 46 47 49 50 49 49 48 46 43 40 37 34 29 33 34 33 32 29 28 27 27 23 24 25 25 26 26
12 12 13 15 16 17 18 20 22 25 29 32 37 41 44 46 48 50 51 48 49 49 47 45 41 37 33 28 24 29 33 33 32 31 29 27 27 26 24 25 25 24 24 24
13 14 16 16 18 19 21 23 26 30 34 39 43 46 48 49 48 49 50 50 46 44 42 39 35 32 26 26 29 31 31 31 30 30 28 28 28 24 24 24 23 22 22 21
16 18 18 20 21 23 26 29 32 37 42 45 47 48 49 51 52 51 48 45 42 40 38 37 34 31 30 29 29 29 29 30 30 29 27 27 28 23 22 22 22 21 20 20
20 21 22 23 25 28 31 36 40 44 47 49 50 51 52 50 47 45 43 41 40 39 37 35 33 30 30 31 29 29 30 28 27 27 26 26 27 25 22 22 21 21 21 21
21 22 25 27 30 33 37 41 45 47 49 50 52 51 48 46 45 44 43 42 41 39 36 34 32 30 30 30 29 28 29 28 26 24 25 25 26 27 22 21 20 20 21 21

GFSNGP_700_spd_045.txt.gz
Wind_Speed
19 14 11 12 12 13 20 23 22 19 17 14 14 15 14 15 16 17 22 24 29 32 33 36 38 40 39 39 40 42 38 32 34 32 30 32 35 38 38 40 41 41 41 41
14 14 14 17 18 18 19 21 23 24 25 21 20 16 16 15 17 17 20 22 26 29 33 37 40 40 38 41 40 44 37 36 29 27 30 34 37 38 39 40 40 40 37 38
11 9 9 14 21 22 22 22 21 23 22 19 16 16 14 13 16 17 18 21 25 28 32 36 39 36 38 40 45 41 38 32 29 29 31 33 36 38 39 40 40 38 37 36
7 4 2 10 13 14 13 15 18 21 19 19 17 14 15 13 13 16 17 20 25 28 32 34 35 36 40 43 42 42 31 26 27 31 31 34 37 38 39 40 38 36 36 36
6 9 12 14 12 13 9 8 8 10 11 12 15 14 17 11 14 16 20 22 26 29 31 32 34 38 39 40 43 46 28 23 28 30 33 35 37 38 39 39 37 36 35 34
9 4 4 4 9 9 7 8 1 3 7 12 19 11 12 19 20 26 25 22 24 27 26 31 35 39 40 40 31 25 23 28 26 32 35 36 37 38 38 38 36 37 35 32
12 8 7 10 13 10 5 3 9 15 12 13 12 15 20 27 30 28 23 24 27 27 29 35 39 43 42 33 21 20 28 24 29 33 35 37 39 38 37 36 36 34 32 30
10 7 7 9 2 2 7 15 19 19 17 20 22 26 27 29 30 28 27 28 29 31 35 41 42 45 35 21 22 20 23 27 30 33 36 38 38 37 35 34 33 31 29 29
8 4 9 9 13 17 19 21 23 24 22 25 27 29 30 30 32 31 32 31 34 34 40 46 43 36 23 17 16 20 24 28 32 34 36 37 37 36 33 32 31 29 28 28
13 6 9 13 20 22 23 21 22 25 26 27 28 27 33 31 33 32 33 34 35 38 37 37 32 23 18 18 19 23 27 30 32 35 36 35 35 35 33 31 30 28 28 27
15 13 15 15 20 20 21 25 26 28 27 26 26 29 31 31 34 32 33 35 36 41 35 18 17 20 21 21 22 26 29 31 34 35 35 36 36 35 33 30 29 28 28 28
10 18 18 20 25 25 26 26 26 27 28 28 27 28 29 29 30 30 32 33 25 17 17 19 23 22 20 23 26 29 32 34 36 36 37 36 35 34 32 31 29 29 28 27
20 21 22 25 26 27 25 26 29 30 28 27 25 25 26 26 28 23 15 12 18 25 25 18 17 20 24 26 29 32 35 37 38 38 37 37 34 32 32 31 32 29 28 26
22 22 26 24 24 25 28 28 26 24 22 21 21 20 20 18 15 14 16 16 17 18 19 21 22 24 28 32 34 36 38 39 39 38 37 36 34 33 33 33 33 32 30 28
25 23 23 24 26 26 23 20 19 17 16 16 13 12 13 13 13 15 16 15 16 18 20 23 26 29 33 36 38 39 40 40 39 38 36 35 36 35 33 33 32 32 30 28
23 23 23 22 21 19 20 15 13 13 13 13 12 11 13 15 14 14 16 17 19 21 24 27 31 34 37 40 40 41 42 42 42 40 39 35 35 36 35 33 32 31 30 27
20 18 18 17 15 12 11 10 11 11 11 12 13 14 13 13 14 16 19 22 24 27 30 33 37 40 42 43 43 45 46 37 32 36 37 36 41 37 34 33 33 32 30 28
15 15 12 11 9 8 9 10 11 13 13 12 12 12 14 16 18 20 24 27 30 33 36 40 45 48 48 49 48 48 46 43 41 40 37 37 37 38 39 38 35 33 29 27
9 8 7 8 8 9 10 11 12 13 13 13 14 15 17 21 25 28 32 36 39 43 46 48 50 52 52 51 49 48 46 43 40 39 36 37 36 33 34 31 31 31 28 25
7 7 8 9 11 12 13 13 14 14 14 15 17 20 22 26 30 34 38 42 45 48 51 52 52 52 53 51 49 46 40 38 36 33 30 30 32 33 31 28 28 29 26 24
9 10 11 11 12 13 15 15 15 16 18 20 23 26 29 33 38 42 45 48 50 51 52 53 53 53 52 48 44 38 33 35 31 30 30 29 34 31 28 28 28 30 27 25
11 12 13 14 16 17 17 18 18 20 23 25 28 31 35 39 43 46 49 51 52 53 54 53 50 47 45 44 39 33 28 25 29 30 33 34 33 31 30 31 32 31 27 26
14 15 17 17 18 19 19 20 22 24 27 30 33 37 41 45 48 50 52 52 53 52 50 48 47 43 41 39 36 30 27 29 29 32 33 33 32 30 30 30 31 27 24 26
16 17 17 18 19 20 21 23 26 29 31 35 39 43 46 49 50 51 52 51 50 48 46 45 45 42 41 39 36 31 31 34 34 33 31 30 30 30 29 28 28 26 23 24
16 17 19 20 21 22 24 26 29 32 36 40 44 47 49 50 52 51 50 49 48 46 44 44 43 42 41 39 36 33 33 34 32 30 29 29 27 27 27 26 26 25 22 22
19 20 22 22 23 26 28 31 33 37 41 45 47 50 51 51 49 48 46 45 44 43 44 43 42 40 37 35 33 31 31 32 30 29 28 29 28 26 25 25 25 25 23 22
22 23 23 25 26 29 31 34 38 42 45 47 49 50 49 47 45 44 42 42 42 42 41 39 37 34 31 29 28 27 27 27 27 27 27 27 26 25 25 24 24 25 24 22

GFSNGP_700_spd_051.txt.gz
Wind_Speed
13 12 19 10 12 11 9 14 16 15 15 14 18 5 7 11 6 7 10 12 17 21 24 27 30 33 37 40 40 42 39 41 43 42 45 44 46 35 34 31 33 26 29 32
15 17 16 15 13 19 22 17 17 16 16 9 11 9 8 9 11 10 9 14 19 23 25 28 31 35 39 40 41 38 38 42 44 45 51 40 36 31 32 33 24 27 29 34
13 16 18 19 25 22 18 15 16 15 10 13 14 8 8 12 15 16 15 19 20 19 22 28 33 38 36 36 38 41 42 44 46 49 45 43 34 32 31 24 25 29 32 34
9 10 1 14 6 10 6 6 7 8 11 10 10 11 10 13 17 18 18 17 17 20 25 28 32 34 37 40 41 44 46 47 47 49 46 40 33 26 22 26 29 34 35 33
7 13 11 13 11 12 10 4 6 11 11 11 9 14 14 13 14 12 16 16 17 23 26 26 30 34 37 41 42 43 46 49 49 50 35 25 19 24 25 28 32 34 35 34
11 5 7 5 8 11 8 7 9 13 16 16 12 16 19 15 15 18 21 26 29 29 26 25 29 32 34 39 42 43 46 54 43 34 16 24 21 23 28 31 33 34 35 35
18 10 8 11 11 11 9 8 12 13 12 12 19 20 18 20 24 24 27 30 31 30 29 29 30 32 36 39 43 48 44 31 18 21 24 20 24 27 30 33 36 35 36 35
14 10 10 15 15 13 12 17 16 14 14 21 19 19 20 21 25 27 28 28 29 29 29 29 30 32 36 40 37 32 26 20 22 20 20 23 26 29 33 36 37 37 35 34
8 4 8 13 16 13 13 15 16 18 20 19 18 18 24 27 27 26 26 25 25 24 26 28 32 35 33 30 21 19 21 15 17 21 23 27 31 33 35 36 37 38 38 35
9 7 16 17 17 16 15 18 21 20 18 19 20 22 25 26 26 23 21 20 21 23 25 28 28 24 18 21 21 15 17 18 21 25 28 31 34 36 38 39 40 40 39 37
15 12 17 19 20 20 21 24 19 20 21 21 20 22 24 22 20 19 19 21 22 24 23 19 18 19 19 17 18 18 20 22 26 30 33 36 38 40 41 40 39 39 38 36
21 23 24 24 26 25 23 21 22 23 22 21 22 21 21 20 22 22 21 21 21 18 17 17 18 18 17 18 21 24 26 29 31 34 37 40 42 43 41 42 40 35 33 34
21 20 21 23 24 24 23 24 24 23 23 23 20 19 19 19 18 16 16 15 15 16 18 17 16 17 20 23 26 29 33 37 41 43 45 45 44 44 45 41 34 32 33 33
22 21 24 23 24 24 23 24 24 23 22 21 19 15 13 12 12 13 13 14 16 17 16 17 19 22 26 29 32 35 38 41 44 46 47 47 47 44 39 38 41 40 37 35
24 25 23 21 23 25 25 24 23 22 20 15 11 10 10 11 13 14 15 15 16 17 19 22 25 28 30 33 37 40 43 46 47 47 47 47 46 42 40 41 43 42 39 34
24 24 22 22 22 22 22 23 20 16 12 11 11 10 12 13 15 16 14 15 17 20 23 27 30 34 37 40 43 46 48 49 49 50 50 48 45 42 38 39 40 33 34 35
23 23 22 22 22 21 19 16 13 11 11 10 10 12 14 15 14 15 17 20 23 26 29 32 36 39 42 46 48 50 50 51 52 52 49 46 41 36 33 35 32 34 36 33
23 23 23 22 19 16 12 10 10 9 10 11 13 14 15 15 17 18 21 24 28 31 33 37 41 44 47 50 51 53 54 54 53 51 48 42 37 26 27 29 30 29 27 27
22 19 17 16 11 9 9 8 9 10 12 13 15 16 17 18 20 23 26 30 33 35 39 42 47 50 51 52 54 54 53 50 47 45 42 37 33 28 30 31 26 25 28 26
16 11 8 9 8 8 8 9 10 11 13 15 16 17 20 22 24 27 31 35 38 41 45 49 51 51 53 54 53 50 47 45 44 42 39 34 25 23 25 26 27 30 27 26
11 11 9 9 9 9 10 10 12 14 15 16 17 19 22 25 29 32 35 38 42 45 48 50 50 52 52 50 48 46 46 46 44 42 39 34 26 26 22 23 27 30 30 29
10 9 8 8 9 10 12 14 15 16 17 19 20 23 27 29 32 35 38 42 45 47 48 49 49 48 46 45 45 45 45 43 41 38 34 32 31 32 38 39 38 33 31 28
10 9 9 10 11 12 14 16 17 18 21 23 24 27 30 32 35 39 42 45 46 46 47 46 44 42 41 42 42 41 41 40 38 35 31 29 29 29 30 30 29 27 26 25
11 10 12 12 14 14 17 19 20 21 24 26 28 31 33 35 39 42 44 44 44 43 42 41 40 39 39 39 38 37 36 36 35 33 29 27 27 27 26 26 26 25 26 24
12 13 14 15 16 18 19 23 24 24 26 28 30 33 36 39 41 43 42 43 42 41 39 38 38 38 37 36 34 33 33 33 33 32 30 28 27 27 25 24 23 24 24 24
13 15 17 18 20 21 23 24 25 28 29 31 33 37 40 42 42 41 40 40 39 37 37 37 36 35 34 32 32 31 31 30 30 29 29 28 27 25 25 24 22 21 21 21
18 19 20 21 22 23 26 26 28 31 32 33 37 40 41 42 41 39 38 37 36 35 35 34 33 31 30 29 28 28 28 28 28 28 28 27 26 25 23 22 22 22 21 20

GFSNGP_700_spd_054.txt.gz
Wind_Speed
13 12 13 12 9 12 14 10 6 10 19 16 16 12 9 17 13 14 12 14 17 19 21 23 26 27 28 32 33 32 31 37 38 40 38 44 53 49 53 48 46 39 27 21
24 21 21 19 16 16 18 17 18 16 14 11 10 9 9 12 20 19 17 17 19 19 21 24 26 28 28 30 32 30 33 37 37 41 45 42 51 52 54 45 32 20 21 23
21 20 18 21 26 24 22 23 24 20 17 13 14 15 13 14 16 16 16 16 19 21 21 20 19 23 26 32 35 37 38 39 42 45 47 52 56 48 33 33 21 22 23 28
10 12 2 13 15 13 17 13 12 14 14 12 12 12 9 9 10 12 13 14 15 17 17 19 23 26 30 32 34 35 37 42 44 47 50 53 44 39 28 21 20 22 27 30
7 15 10 8 9 14 14 10 11 12 14 13 11 8 9 10 12 14 14 14 15 16 18 24 28 27 28 32 35 38 41 43 45 53 52 36 37 24 21 20 22 26 28 31
12 6 7 11 12 21 18 16 16 13 12 11 12 11 13 14 16 16 17 19 21 24 23 22 21 24 28 32 35 38 41 46 49 35 38 31 27 22 21 23 26 29 32 34
24 14 14 15 11 12 17 14 19 18 16 14 14 17 18 20 19 21 21 22 22 20 17 18 21 24 28 32 36 38 42 40 39 38 29 28 23 22 25 28 31 33 36 37
20 15 13 19 18 23 17 17 15 15 13 14 19 23 22 21 21 20 20 20 18 17 17 20 24 27 29 33 37 38 38 35 29 29 26 24 25 26 29 32 35 38 39 40
15 9 11 9 18 18 17 12 11 12 13 19 22 21 21 20 19 19 20 19 18 19 22 23 28 31 32 35 35 30 26 28 27 23 25 27 29 31 34 37 40 41 41 42
16 16 13 12 13 14 15 14 14 14 18 20 21 22 20 19 18 19 19 21 23 24 25 29 30 31 29 24 24 25 24 23 24 25 28 30 33 36 39 41 43 44 44 43
22 17 17 17 18 18 18 18 19 21 21 22 22 21 20 21 18 19 22 24 26 29 28 28 24 21 22 23 25 24 23 24 26 29 33 36 38 41 43 45 45 47 45 42
26 21 21 20 20 22 22 23 23 23 23 23 22 21 20 19 20 22 24 26 27 26 23 20 20 21 24 22 23 24 26 29 32 36 38 41 45 47 48 48 47 47 44 35
20 19 19 21 23 24 24 25 25 25 24 22 21 20 20 21 24 25 24 22 21 20 20 21 22 21 22 23 26 30 33 37 40 43 45 48 50 52 54 51 49 46 40 35
16 17 21 22 24 25 25 26 26 25 24 22 21 20 21 19 18 16 16 18 19 20 21 20 21 23 26 29 32 34 38 41 44 47 49 51 52 53 53 52 51 47 42 40
17 19 22 23 24 24 25 25 25 23 21 20 19 17 16 16 15 15 17 18 19 19 20 22 24 27 31 34 37 39 42 46 49 51 52 52 53 53 51 48 46 44 39 36
20 22 24 24 24 24 26 25 22 20 18 16 15 14 14 14 15 15 16 17 18 20 23 26 29 33 36 39 41 44 47 49 51 53 53 53 51 49 45 42 39 37 32 33
24 25 24 23 23 24 23 22 21 18 15 13 13 12 13 14 15 16 17 18 21 24 27 30 33 36 39 42 46 48 49 52 54 54 52 49 47 45 41 37 33 25 23 23
26 26 25 24 22 21 20 20 17 14 12 12 12 12 13 14 16 17 19 22 25 28 32 34 36 39 43 46 48 51 53 53 51 49 47 46 45 42 38 34 30 26 28 23
26 26 25 22 20 17 15 12 11 10 11 11 11 13 14 16 18 20 22 25 28 31 34 36 40 43 46 48 50 51 51 48 46 45 45 44 43 40 35 29 25 18 19 24
21 18 15 14 14 12 11 10 11 10 10 12 14 15 17 18 21 24 26 29 32 34 38 40 43 45 47 49 50 49 47 45 45 44 43 42 40 38 34 30 29 29 25 23
13 12 12 12 11 11 11 9 9 10 12 14 16 18 20 22 24 26 29 32 34 37 40 43 44 46 48 48 46 45 43 42 42 42 41 40 38 37 34 32 32 38 38 34
10 11 11 11 11 10 8 9 10 12 14 15 18 21 23 25 27 30 31 34 38 41 43 43 44 45 45 44 43 41 40 40 39 37 36 36 36 35 33 30 29 30 31 28
10 12 13 11 9 9 10 11 12 14 16 18 21 23 25 27 29 31 34 38 41 42 43 43 44 43 41 40 39 38 37 36 35 33 33 34 33 33 32 29 28 27 26 26
12 12 9 8 9 10 11 13 15 17 19 21 23 26 28 30 32 35 39 41 43 42 42 42 40 39 38 36 36 34 34 32 31 30 31 31 31 31 30 29 27 26 25 24
11 10 10 10 11 13 15 17 20 21 23 25 28 30 32 33 35 39 41 42 42 41 40 39 38 37 36 34 33 32 31 30 29 29 29 30 30 30 29 29 27 25 24 23
11 11 12 14 14 17 20 22 24 25 27 29 31 33 35 37 40 41 41 41 41 39 38 37 36 36 35 33 32 30 29 28 28 30 31 32 32 32 31 29 27 25 24 23
13 15 18 20 20 21 24 26 26 28 30 32 33 36 38 40 41 40 40 40 39 38 36 35 35 35 34 32 30 29 28 29 30 31 33 35 34 33 31 30 29 27 24 22

GFSNGP_700_spd_057.txt.gz
Wind_Speed
20 18 18 16 24 19 15 19 15 16 17 15 18 18 17 16 19 18 17 17 17 18 21 23 23 25 26 27 29 32 34 35 33 32 31 33 35 40 43 50 50 45 37 36
16 16 17 18 19 18 18 20 19 20 21 18 18 16 16 14 13 20 22 20 19 19 21 24 25 25 25 26 30 31 35 34 34 35 36 36 40 46 49 50 37 39 35 24
20 19 21 23 32 30 30 27 28 28 28 26 24 24 19 17 16 17 21 20 18 19 22 22 21 20 20 21 22 25 30 31 32 35 38 41 44 48 53 40 45 34 22 25
13 12 2 25 26 26 31 33 34 34 31 24 19 21 20 17 16 16 16 17 17 16 17 17 16 17 20 23 24 25 28 31 33 37 40 42 52 45 38 45 32 25 26 27
10 16 16 11 17 18 18 16 15 14 13 16 17 16 15 13 12 12 14 15 15 16 17 18 21 22 20 21 23 26 30 34 39 37 45 42 41 41 40 30 28 29 29 31
14 7 8 17 21 22 22 21 20 17 16 17 15 14 13 11 12 14 14 15 18 20 21 21 19 17 18 21 24 29 31 35 42 42 37 42 45 35 31 32 30 31 33 35
23 14 11 17 15 15 18 22 25 23 19 17 15 14 13 14 17 17 16 17 19 19 20 20 20 21 22 24 29 37 36 34 37 42 43 39 33 32 31 32 34 37 39 40
24 18 14 20 21 25 22 22 15 15 20 18 17 17 19 21 20 19 19 19 20 21 21 22 22 23 25 25 29 34 38 38 40 38 34 35 34 32 34 37 40 42 44 46
22 21 18 12 13 19 23 19 14 12 14 16 18 19 23 21 21 21 21 21 21 21 19 23 25 23 29 36 33 35 37 33 32 34 34 33 35 36 39 41 44 46 48 50
24 25 23 18 15 13 15 15 14 14 16 18 19 22 21 22 21 21 22 22 22 23 26 27 25 34 35 34 31 28 28 30 32 33 33 34 37 40 43 45 48 50 53 53
29 25 20 18 17 16 15 14 15 16 18 21 23 22 23 22 21 22 23 22 25 25 24 29 32 32 28 25 26 26 29 30 30 33 36 39 41 44 47 48 52 55 56 56
33 27 21 15 14 17 17 16 18 21 23 25 25 25 24 23 23 23 23 24 26 28 29 29 25 24 24 25 27 27 28 31 34 37 40 43 47 49 51 53 54 55 55 55
26 19 17 17 18 17 20 21 23 26 26 27 26 26 24 24 24 24 24 25 26 27 23 22 23 24 25 25 27 29 33 36 39 42 45 48 51 55 57 56 57 57 56 54
22 20 20 19 19 20 22 25 26 27 27 27 26 24 23 22 23 24 25 23 20 20 22 23 24 23 25 27 30 33 36 40 43 46 49 52 54 57 58 59 58 54 48 45
23 23 20 19 20 22 25 26 26 27 26 25 24 23 23 22 21 20 19 19 20 21 22 22 23 26 28 31 34 37 40 42 46 49 51 54 56 56 54 52 49 48 45 38
25 23 21 23 24 25 25 26 26 26 25 24 23 21 20 19 18 17 18 20 20 21 21 23 26 29 32 35 37 39 43 46 48 51 54 54 53 51 49 48 48 46 42 35
26 28 27 26 25 25 25 25 26 25 23 21 20 18 17 16 17 17 18 19 20 22 24 27 30 33 35 37 40 43 45 47 50 52 52 50 48 48 48 47 45 42 37 31
30 34 29 27 23 22 24 24 23 21 20 18 16 15 15 15 16 17 19 20 23 25 27 30 33 35 37 40 43 44 46 49 50 49 48 47 46 46 45 43 41 39 34 28
31 28 26 21 22 22 23 23 21 20 18 16 15 14 13 15 17 19 21 23 25 28 30 32 34 37 40 42 43 46 47 48 47 46 45 44 44 42 40 39 38 37 34 31
24 20 24 24 20 18 17 17 17 16 14 13 12 13 15 17 19 21 23 26 28 30 32 35 37 40 42 42 44 46 46 46 45 43 43 42 41 38 36 36 36 36 35 31
20 18 16 14 13 13 13 13 14 13 11 11 13 15 18 19 22 24 26 28 30 32 34 37 39 41 42 43 45 45 45 44 43 41 40 39 36 34 34 34 34 34 35 31
11 11 10 11 11 11 12 13 11 10 11 13 16 18 20 22 24 26 28 30 32 34 36 39 41 41 42 43 43 43 43 42 41 39 37 35 33 32 32 32 32 33 33 30
10 12 11 12 13 14 12 9 9 11 13 16 18 20 23 24 26 28 30 32 34 37 39 41 41 42 43 43 42 42 41 40 38 36 34 33 32 32 33 34 34 34 33 31
10 11 12 13 12 10 9 10 11 14 16 18 21 22 24 26 29 31 32 35 38 41 42 41 42 43 43 42 40 39 39 37 36 34 32 32 33 34 35 37 36 35 33 31
9 11 12 11 10 11 12 14 15 17 20 22 23 25 27 29 31 33 36 39 42 43 42 42 42 42 41 39 37 37 37 36 34 32 32 32 34 35 37 37 36 34 33 31
11 10 10 12 14 16 17 19 21 22 24 26 27 29 31 33 35 37 40 43 43 43 42 42 41 40 38 37 36 35 35 34 32 32 32 33 35 37 37 35 34 34 32 31
9 11 13 15 18 21 23 25 26 28 28 30 32 34 35 36 38 41 43 44 43 43 42 41 39 38 37 36 35 34 33 32 31 30 31 33 36 35 34 34 34 33 32 30

GFSNGP_700_spd_060.txt.gz
Wind_Speed
24 20 18 21 23 21 26 24 21 23 23 15 16 16 17 18 18 18 19 18 18 17 18 18 21 23 24 25 25 26 28 27 30 32 40 25 31 40 44 35 45 47 52 40
24 24 25 19 19 21 20 19 22 21 24 19 21 20 18 17 19 18 18 20 21 21 21 22 23 25 26 25 26 27 26 25 26 27 32 37 38 33 43 46 48 48 44 45
23 22 20 19 26 25 25 28 31 32 34 30 29 30 29 27 24 20 21 22 21 19 19 21 22 23 24 23 23 23 23 25 25 29 31 35 38 35 42 49 36 39 43 40
22 18 2 27 26 26 28 28 31 34 36 34 30 29 27 22 20 17 15 15 17 19 21 21 21 20 19 21 22 24 22 24 27 29 33 35 43 45 37 37 46 42 34 34
15 18 21 19 22 21 17 21 18 20 17 15 16 17 16 16 14 14 15 17 19 20 20 20 20 21 23 26 23 22 24 24 27 33 36 39 35 35 42 45 40 37 36 33
16 8 8 24 19 18 19 28 22 19 16 14 14 17 15 14 14 15 15 17 18 19 20 21 21 21 20 21 21 22 26 28 29 34 30 32 41 44 42 37 38 37 35 36
27 16 17 20 16 11 18 30 19 16 21 18 17 16 16 15 14 15 18 20 20 21 20 19 19 19 19 21 21 22 25 29 27 35 41 41 41 37 37 37 37 37 40 41
27 19 14 22 19 24 24 20 18 17 16 22 20 18 16 15 16 19 21 21 22 21 21 21 22 23 22 21 22 21 29 35 35 37 36 33 34 35 36 38 40 42 45 47
29 26 27 18 18 18 19 20 21 17 12 17 18 17 17 17 20 22 22 22 22 23 24 26 24 25 25 22 25 33 36 33 32 31 32 34 36 37 38 41 44 48 51 53
30 33 31 30 27 24 19 16 17 17 13 14 17 18 19 21 22 22 23 23 24 25 27 25 26 27 23 29 34 34 28 29 30 31 32 33 36 39 43 45 48 52 55 58
34 29 24 29 29 23 20 19 17 16 16 16 18 20 21 23 24 24 24 24 24 26 24 27 25 26 34 33 26 26 27 29 30 31 34 36 39 42 45 47 52 56 58 61
42 40 29 33 22 17 19 19 18 18 18 18 20 22 24 26 26 25 25 25 24 25 26 28 31 32 26 24 25 26 27 28 31 34 37 40 43 44 47 50 53 56 57 57
33 24 32 26 20 20 19 19 20 21 21 22 25 26 27 27 25 24 24 24 25 26 28 30 26 23 24 25 26 27 29 32 35 38 40 43 46 49 52 52 54 54 54 52
24 28 29 23 22 21 22 21 21 23 25 27 28 28 28 26 25 24 24 25 26 28 26 21 22 23 24 25 27 30 33 36 38 41 43 46 49 52 54 56 57 55 51 50
24 27 28 25 23 22 22 23 23 25 27 29 29 29 27 25 25 24 24 25 24 20 20 21 22 23 25 27 30 33 36 38 40 43 45 48 50 52 53 52 52 51 50 48
26 27 27 27 26 24 23 24 25 27 28 28 28 26 25 24 24 24 24 20 18 19 20 22 24 26 28 30 33 35 37 40 42 44 47 49 50 50 50 49 49 49 48 47
21 21 23 27 23 23 25 27 29 30 28 27 26 25 24 23 22 20 18 18 18 20 23 24 26 28 31 33 35 37 39 42 43 45 47 47 48 48 48 47 46 45 43 40
21 22 21 28 27 29 30 32 29 25 22 21 22 23 22 20 19 18 18 18 20 22 24 26 28 31 33 35 37 39 41 42 43 45 46 47 46 45 45 44 42 41 39 36
27 27 27 29 29 29 24 21 19 20 19 20 22 22 19 17 17 16 16 19 22 24 26 28 31 33 35 36 38 40 41 42 43 44 45 44 43 42 41 40 39 37 36 35
25 24 23 22 22 17 15 16 19 19 21 20 17 14 15 14 13 15 19 22 24 26 28 30 33 35 36 38 40 40 41 42 43 43 43 42 41 39 38 37 36 35 35 35
21 19 18 19 17 14 14 15 17 15 14 14 14 12 11 13 16 20 22 25 27 28 30 33 34 36 38 40 40 40 41 42 42 42 41 40 39 37 36 35 35 36 37 37
15 12 8 7 7 10 13 13 13 13 13 11 10 11 13 17 20 22 25 27 29 31 33 34 35 38 40 40 40 41 42 42 41 40 40 39 38 36 35 35 37 38 39 39
6 6 6 8 9 10 10 11 12 12 10 11 12 15 18 21 23 25 27 29 31 32 33 35 38 40 41 41 41 41 41 41 41 40 38 37 36 35 36 37 38 40 40 38
7 8 8 9 10 11 12 12 10 11 12 14 16 19 22 24 26 28 29 31 33 34 36 38 41 42 42 42 42 41 41 41 40 38 37 36 35 35 35 37 39 38 36 36
7 8 9 11 12 12 11 12 13 14 17 19 22 24 26 29 30 32 33 35 36 38 40 42 43 44 44 43 43 41 40 39 37 36 35 34 33 33 34 36 36 36 36 36
7 8 9 9 10 12 14 16 18 21 24 26 29 31 32 33 34 35 37 38 39 42 43 45 45 45 44 43 41 39 37 36 35 35 35 33 32 32 33 34 35 35 35 35
7 8 9 11 12 15 19 22 25 28 29 31 33 35 36 37 38 39 41 42 43 44 45 46 44 43 42 40 38 36 34 34 34 34 33 32 32 32 32 33 34 34 34 33

GFSNGP_700_spd_063.txt.gz
Wind_Speed
27 24 25 25 23 20 19 22 24 27 28 22 17 18 15 15 15 17 17 16 19 19 19 18 17 17 19 21 22 23 24 24 24 25 26 27 25 33 33 28 30 36 34 37
26 24 25 22 22 21 20 21 24 25 29 23 21 20 18 18 17 16 17 18 19 22 23 22 22 23 23 24 26 28 28 28 29 29 28 24 21 35 33 43 33 38 35 33
25 25 25 22 27 26 24 24 26 31 33 28 27 27 28 28 29 27 25 25 23 22 22 21 23 23 24 25 26 28 27 26 26 26 23 22 28 30 38 35 37 29 38 40
22 21 6 25 27 26 24 27 29 33 34 30 28 28 28 26 22 21 20 19 18 17 18 20 21 21 22 22 23 24 26 27 26 22 21 29 31 33 35 30 33 40 38 34
16 21 22 17 25 25 21 33 28 27 19 20 17 17 17 15 13 14 14 15 16 18 18 19 21 23 23 24 25 27 26 23 24 22 26 30 33 28 33 38 38 34 34 33
13 11 10 26 26 26 25 30 25 22 22 18 15 15 14 14 15 16 15 16 18 18 19 21 21 21 22 22 23 24 24 21 25 21 25 24 31 39 38 36 34 34 33 34
26 21 20 18 19 17 15 34 22 17 13 15 18 15 13 16 18 16 16 16 17 19 19 19 19 19 20 21 22 21 20 21 22 23 30 34 33 31 30 32 32 33 36 38
26 21 17 21 22 25 31 26 20 18 15 14 15 17 19 19 18 17 15 16 18 19 19 19 18 18 20 20 19 20 17 20 27 31 29 26 27 28 30 32 35 38 40 42
31 29 28 23 21 22 24 21 23 19 17 15 18 20 20 19 18 16 16 18 19 20 20 20 20 21 19 20 20 18 23 30 28 25 26 27 28 30 32 35 38 41 44 46
31 33 31 29 28 28 29 28 23 20 18 14 15 20 20 19 18 17 18 20 20 20 20 20 21 20 22 22 21 26 30 24 24 25 27 28 30 33 36 39 41 44 47 51
34 36 31 29 25 26 30 29 25 21 19 17 19 20 20 19 19 20 21 21 21 20 20 22 22 24 24 24 29 28 23 24 25 25 27 30 32 35 38 41 44 47 51 53
35 27 22 27 31 29 32 29 24 22 20 19 20 21 20 20 21 22 23 23 22 22 23 22 24 26 29 31 24 23 24 24 26 28 31 33 35 37 39 42 45 48 50 53
29 27 28 31 29 22 26 26 23 22 21 20 21 22 23 24 24 24 24 24 23 23 23 25 27 27 25 20 22 23 24 26 29 31 33 36 38 41 42 44 45 47 49 51
27 27 28 29 23 24 24 24 23 24 25 25 24 25 26 27 26 25 25 24 25 24 26 27 27 21 19 21 23 25 27 29 31 34 36 39 41 42 44 46 48 49 50 50
24 24 26 25 23 23 23 24 25 25 26 26 27 29 29 27 26 26 25 25 25 27 27 25 20 19 21 24 26 27 29 32 34 36 39 41 42 43 45 46 48 49 49 48
30 26 30 31 27 26 27 25 25 25 28 29 31 32 30 29 28 25 24 25 27 27 23 20 19 20 23 26 28 30 32 34 36 38 40 41 42 44 45 46 47 48 47 47
25 25 20 22 22 22 24 24 27 31 30 30 31 33 32 25 20 24 26 27 27 22 20 19 19 22 26 28 30 32 34 36 38 39 40 41 43 44 44 45 46 45 43 41
28 35 31 20 14 16 22 27 32 33 33 32 27 18 19 21 23 26 27 22 18 18 17 18 22 25 28 30 31 33 35 37 39 40 40 41 42 43 44 44 43 42 39 37
22 15 17 25 21 20 21 25 24 26 27 20 21 20 22 25 24 19 16 16 15 16 19 22 25 27 29 31 33 34 36 38 39 40 41 41 42 42 43 42 40 38 37 36
19 20 20 19 19 22 22 21 20 19 21 23 23 21 20 16 14 15 14 13 15 19 22 25 27 29 31 33 34 36 38 39 40 41 41 41 41 41 40 40 38 37 36 36
16 16 16 16 16 15 13 13 15 19 21 17 16 14 14 15 14 12 13 17 20 23 24 26 29 31 32 33 35 38 39 40 41 41 41 41 40 39 39 38 37 36 36 36
13 12 12 11 9 9 12 14 14 14 14 13 14 15 13 11 12 15 19 22 24 25 27 29 31 32 34 36 38 40 41 41 41 41 40 40 39 38 37 37 36 35 35 36
8 6 6 6 6 6 6 8 10 12 14 14 12 11 12 14 18 21 24 26 28 29 31 33 35 36 37 39 40 41 41 41 41 40 40 39 38 37 36 36 35 34 35 36
6 5 4 2 4 5 8 10 12 12 11 11 13 15 18 22 25 27 29 31 33 35 37 38 39 40 40 41 42 42 42 41 40 39 39 38 36 35 35 35 34 34 34 35
5 1 3 5 7 10 10 11 11 12 14 17 19 22 26 29 31 34 35 37 38 40 41 41 41 42 43 43 43 43 41 40 39 38 37 35 34 34 34 33 33 33 33 34
4 5 6 8 8 8 10 11 14 18 21 23 25 28 31 33 36 38 40 41 42 42 42 43 44 44 44 44 43 41 40 39 38 36 34 33 32 33 33 32 31 31 31 32
5 6 6 8 10 12 14 17 20 23 26 29 32 34 36 38 40 40 41 41 42 43 45 45 44 44 43 42 41 39 38 36 34 33 32 31 32 32 32 31 29 29 29 29

GFSNGP_700_spd_066.txt.gz
Wind_Speed
26 20 18 19 19 21 26 26 24 20 20 20 18 18 18 19 16 14 18 19 18 17 19 21 20 19 18 20 22 24 24 25 26 28 28 29 30 30 31 30 34 31 34 30
21 21 22 22 22 23 24 20 21 23 24 19 19 20 20 22 20 19 18 20 20 20 20 24 25 25 24 24 25 26 28 29 31 32 32 32 32 30 28 25 24 33 28 31
23 18 16 20 28 22 21 24 22 23 23 20 24 26 25 26 24 25 26 28 28 27 26 27 27 26 27 27 27 28 30 32 33 30 28 29 31 25 21 27 30 31 32 34
19 18 8 26 21 21 24 23 23 26 25 27 28 27 29 28 29 27 27 24 23 23 23 21 21 21 22 23 24 26 27 27 27 29 30 23 21 23 26 28 31 30 34 35
17 20 19 17 24 24 26 25 24 23 27 23 27 23 23 23 24 22 18 17 16 16 15 15 16 19 21 23 24 24 25 26 27 24 23 18 24 28 28 28 33 34 30 29
17 11 8 21 25 25 21 24 23 25 19 21 21 24 18 18 18 18 19 19 17 16 16 17 18 20 22 22 22 22 22 23 24 23 24 24 25 29 30 31 29 29 29 30
21 11 14 16 15 16 17 31 16 18 19 20 18 19 21 18 19 21 21 19 17 16 15 17 18 19 19 19 20 21 23 22 22 23 23 24 27 29 27 27 28 28 30 31
21 14 14 20 19 24 28 20 18 19 20 20 20 19 19 19 20 23 21 19 17 16 17 18 18 19 19 19 21 21 22 22 19 21 26 28 27 26 27 27 28 31 33 35
23 19 21 18 15 19 21 20 21 21 23 22 21 21 20 22 23 23 21 19 19 18 18 18 19 19 20 20 20 21 20 20 22 27 26 24 25 26 27 29 31 34 36 39
28 27 25 24 24 26 25 24 25 24 25 25 22 21 23 25 25 24 23 22 20 19 19 20 21 21 21 20 22 21 21 24 27 24 23 25 25 26 29 31 33 36 39 41
46 39 33 33 28 27 24 24 24 25 26 26 22 22 23 27 27 26 24 23 22 22 22 22 22 23 23 23 23 22 25 26 22 23 24 25 27 29 32 34 36 38 41 42
33 27 27 26 25 29 29 29 31 29 28 25 23 24 25 28 28 26 26 26 25 24 23 24 24 26 26 26 26 25 22 21 23 24 25 27 30 33 32 35 38 40 42 43
32 29 30 28 25 27 29 33 28 25 26 26 23 25 27 29 30 29 30 29 27 26 26 26 26 27 28 27 25 21 21 22 24 26 28 30 31 33 36 39 38 39 41 43
27 25 27 26 27 28 31 32 27 26 26 27 26 26 28 30 31 32 32 31 29 29 28 27 27 28 27 24 21 21 21 24 26 28 30 32 33 36 37 38 39 41 43 43
20 23 26 26 27 27 24 23 25 24 26 29 29 31 32 33 34 34 32 31 31 30 28 27 29 27 23 20 20 21 23 26 28 30 32 33 35 37 38 39 41 41 43 44
24 28 31 32 31 30 27 25 27 26 30 32 33 34 36 37 35 35 36 36 33 28 27 27 27 22 19 19 20 23 26 28 30 31 33 35 36 38 39 40 41 42 43 44
22 26 28 29 25 28 30 25 25 28 30 32 33 34 36 37 37 37 32 26 27 31 28 19 18 18 17 19 23 26 28 30 32 34 35 36 38 39 40 41 42 43 43 44
26 26 22 21 27 24 23 22 22 24 26 24 27 30 32 29 25 24 28 31 27 20 18 18 18 18 20 23 26 28 30 32 33 34 36 37 39 40 41 42 43 43 43 43
29 25 22 21 17 22 21 15 16 17 19 21 24 23 24 26 28 27 22 21 20 18 17 17 18 21 24 26 28 30 32 33 34 35 37 39 40 42 43 43 43 43 43 42
17 12 14 16 16 15 16 16 15 18 19 17 18 20 21 18 18 19 19 17 16 16 16 19 23 26 27 29 31 32 33 35 37 38 40 41 42 43 43 43 43 42 41 40
12 16 13 13 14 10 10 10 9 11 14 15 14 14 15 17 15 15 15 16 17 19 21 25 27 29 31 32 34 35 37 38 40 41 42 43 43 43 43 43 41 40 39 38
8 9 11 11 10 10 9 9 9 10 9 11 13 12 11 12 14 16 18 20 21 24 27 30 32 34 36 37 39 40 42 42 43 43 44 44 44 43 42 41 39 38 36 35
8 7 6 5 2 3 3 4 5 7 9 10 11 13 14 16 18 20 22 24 27 31 34 36 37 39 40 42 44 45 45 45 45 45 45 44 43 42 40 38 37 35 34 33
5 6 6 5 3 2 2 4 7 8 10 12 13 14 17 20 22 24 28 31 34 37 39 40 42 43 44 45 45 45 45 45 45 45 44 43 41 40 38 36 34 33 33 32
9 8 5 3 2 4 5 6 8 9 11 13 16 20 23 25 28 31 34 37 39 42 43 44 45 45 45 46 46 46 46 45 44 43 42 40 39 36 34 33 32 32 31 30
6 4 3 3 5 6 7 9 11 14 17 20 23 26 29 31 34 36 39 41 42 43 44 45 46 47 48 48 46 45 43 42 41 40 38 37 35 33 32 31 30 30 29 28
3 2 3 5 8 11 13 14 16 19 22 25 29 31 34 36 38 40 41 42 44 46 47 48 47 47 46 45 44 43 41 40 38 36 35 33 32 31 30 29 29 28 27 26

GFSNGP_700_spd_069.txt.gz
Wind_Speed
29 24 17 20 23 26 27 27 29 25 24 20 15 14 15 15 16 18 15 14 18 16 18 20 20 24 23 23 24 24 24 25 26 25 27 29 31 32 32 33 31 33 30 35
31 25 25 23 21 22 23 24 26 26 26 20 19 17 18 17 16 20 24 21 19 21 23 28 26 30 27 28 28 28 28 27 28 29 31 33 33 34 33 32 30 31 31 32
30 27 27 31 28 25 23 24 23 25 21 18 18 18 19 19 22 23 26 25 24 26 29 28 28 29 30 29 29 29 32 32 32 33 33 34 33 31 31 32 30 27 29 33
20 20 16 21 21 21 23 23 21 22 21 21 20 21 24 23 26 29 28 29 30 31 33 31 30 29 27 27 28 27 27 27 28 29 29 29 30 32 30 28 30 32 32 31
21 23 21 21 25 24 21 22 21 23 23 21 21 22 27 25 22 26 26 28 27 26 23 22 21 19 19 19 21 23 25 26 27 28 30 31 32 31 28 29 30 29 30 31
16 22 19 27 25 18 17 25 22 20 19 20 20 22 18 21 20 20 21 21 20 19 19 19 18 18 20 21 23 25 26 26 27 28 29 30 28 27 27 27 29 30 29 29
25 15 17 20 20 18 19 24 11 15 15 17 18 17 19 19 22 22 20 20 20 22 22 20 19 20 22 24 25 26 26 26 27 27 28 28 27 25 27 30 30 28 28 28
21 18 16 18 20 24 23 15 14 13 14 17 21 21 20 20 23 23 22 22 25 25 23 22 22 23 23 24 24 24 25 26 26 26 25 25 26 29 30 28 28 28 29 30
16 15 19 19 25 22 21 18 16 17 16 20 22 23 23 21 22 23 24 26 27 27 25 24 23 23 24 25 25 25 25 26 26 25 25 27 29 27 27 27 27 30 31 32
20 15 16 15 16 15 14 16 20 21 20 22 21 25 27 24 24 25 27 29 29 28 26 25 25 24 24 26 27 26 26 26 25 25 27 27 26 26 28 27 30 31 33 35
31 32 32 27 20 20 24 23 23 22 23 26 28 28 29 26 26 27 28 30 30 29 29 28 27 27 27 28 28 28 28 27 27 28 27 26 27 28 29 29 31 33 35 37
25 18 22 23 23 30 26 25 28 26 28 31 32 29 27 27 28 29 31 31 32 32 32 31 30 29 29 30 31 31 30 29 28 26 26 27 28 29 29 32 33 34 36 38
24 25 27 24 21 24 22 24 27 28 30 31 29 27 27 29 30 32 34 34 35 35 34 34 34 33 32 32 31 31 31 28 26 25 25 27 29 30 34 34 33 36 37 39
27 25 25 28 31 30 31 30 30 32 31 28 27 28 30 31 32 36 38 38 38 38 38 38 38 37 37 35 32 28 25 25 24 24 26 28 30 31 33 34 37 40 41 39
19 21 26 27 28 28 30 30 30 29 27 26 29 32 33 34 37 40 42 42 41 42 42 42 40 40 37 33 28 26 21 21 22 25 27 30 31 33 34 35 36 38 39 41
25 26 26 28 27 28 31 32 33 32 29 30 31 34 37 40 43 44 44 44 43 43 42 41 38 33 31 28 24 23 22 22 23 27 30 31 33 34 35 35 37 39 40 42
20 22 22 23 26 28 30 31 30 29 30 31 29 33 39 44 45 43 39 37 37 37 35 32 29 26 23 23 23 23 22 23 27 30 32 33 34 35 36 37 39 40 42 44
24 23 24 27 27 28 25 27 28 28 28 30 30 27 28 29 31 31 32 32 30 26 24 24 23 23 23 23 23 23 25 28 30 32 34 34 36 37 38 40 41 43 44 45
31 25 25 26 25 21 19 18 20 19 16 17 20 22 23 23 23 21 20 21 21 21 22 23 23 24 23 23 24 27 30 32 34 35 36 38 40 40 42 43 44 45 45 46
30 30 31 24 15 10 11 13 14 16 16 16 15 15 14 15 16 16 17 18 20 22 22 22 23 24 25 27 30 33 34 37 38 40 41 42 43 44 45 46 46 46 46 45
26 25 15 10 11 10 8 7 8 8 7 7 7 8 9 11 13 16 18 17 18 20 22 24 25 26 29 32 36 38 40 42 43 44 45 46 46 46 46 46 46 46 45 43
9 9 7 5 3 4 6 6 4 3 3 3 4 7 11 12 13 14 16 18 21 23 25 26 29 33 36 38 41 43 44 46 46 47 47 47 47 46 46 46 45 43 42 40
6 5 3 3 3 2 3 3 2 1 2 4 7 9 11 13 15 18 20 24 25 28 31 33 37 39 42 44 46 47 47 48 48 48 47 47 47 46 45 43 42 40 39 37
5 6 6 7 6 4 3 1 2 4 7 8 10 12 15 18 21 24 27 29 32 35 38 40 43 44 45 46 47 47 48 48 49 49 47 46 44 42 41 40 38 37 35 33
10 9 7 5 3 1 2 5 7 9 11 13 15 18 21 24 27 29 32 34 37 39 43 42 44 45 47 48 49 49 49 48 46 45 43 42 40 39 37 36 34 33 32 31
8 5 3 2 2 4 5 7 9 12 14 17 19 22 25 27 30 33 35 37 40 42 44 46 48 48 48 49 48 48 46 44 42 41 39 37 36 34 33 32 31 30 30 29
5 3 1 2 4 7 9 11 13 16 19 22 24 26 29 32 35 37 39 41 42 44 45 46 47 48 48 46 45 44 42 41 39 37 35 34 32 31 30 30 29 29 28 27

GFSNGP_700_spd_072.txt.gz
Wind_Speed
33 26 25 27 28 28 30 28 25 22 22 21 18 12 14 9 9 11 13 16 12 13 18 21 21 21 18 20 22 23 24 25 27 27 27 26 27 27 32 33 35 35 35 34
36 31 31 30 30 30 29 28 28 24 26 23 21 19 14 15 15 13 14 17 16 15 21 25 29 23 22 25 25 27 27 27 29 27 29 27 32 34 35 35 35 36 35 35
31 31 27 35 34 23 23 24 23 24 22 20 17 17 17 15 13 16 20 26 21 22 29 34 31 26 25 24 28 30 30 30 30 32 32 34 35 37 36 35 33 32 34 32
26 26 24 27 27 28 24 23 21 21 21 19 20 19 20 18 17 21 27 31 28 30 33 35 34 35 34 29 27 30 31 32 35 35 34 33 33 32 31 31 33 33 30 32
24 29 23 30 19 20 21 25 20 21 22 21 20 18 18 20 20 23 26 24 23 25 31 36 33 30 25 23 23 23 23 24 26 29 30 29 29 29 30 31 29 29 30 30
16 20 17 25 26 15 24 28 21 21 20 20 19 17 19 20 18 19 21 21 22 23 24 25 24 20 18 18 19 21 23 24 25 26 26 26 27 28 28 28 29 28 29 30
25 17 15 18 24 25 26 20 22 21 18 19 20 18 20 21 18 19 19 22 24 24 23 22 21 21 22 22 22 23 24 25 26 26 28 28 28 29 29 28 29 29 31 31
30 23 22 13 17 30 33 27 18 15 16 18 18 20 20 19 21 21 20 21 23 25 25 24 24 25 25 24 24 25 26 26 27 28 29 29 29 28 28 29 31 31 28 29
16 16 24 21 25 16 21 22 16 15 18 14 19 19 18 18 21 23 23 23 25 27 27 27 28 28 28 27 26 26 27 27 27 28 29 30 30 28 30 32 30 30 30 31
13 21 9 11 22 21 27 25 21 14 14 18 21 22 20 20 24 27 26 26 27 29 30 31 31 31 31 29 28 27 28 29 29 30 30 30 30 30 32 29 29 30 31 31
21 16 20 25 15 18 17 16 19 18 17 18 25 25 25 27 28 28 27 28 29 31 35 35 35 35 33 31 31 31 31 31 31 31 30 30 31 30 28 28 29 30 32 33
21 14 13 12 14 27 33 30 28 28 28 27 27 27 28 28 30 30 29 29 31 34 38 39 38 36 36 36 36 36 36 35 33 33 33 31 28 26 28 27 28 30 32 34
19 20 22 21 17 15 15 16 18 19 21 22 26 29 29 31 30 31 32 32 34 36 39 40 40 41 42 43 42 40 37 39 40 34 30 28 27 27 27 28 30 31 33 35
22 26 27 25 27 27 28 27 27 28 26 27 29 30 31 32 32 33 34 36 37 39 42 44 44 44 42 40 40 41 42 43 35 29 28 28 28 27 27 30 34 36 37 37
22 24 26 26 27 26 25 25 27 26 26 24 24 25 29 32 34 35 37 40 42 44 46 47 45 43 43 42 40 38 32 29 30 29 27 27 26 27 29 32 35 35 37 39
26 27 25 22 23 23 24 25 27 27 29 29 29 29 31 32 36 39 42 45 47 48 43 38 36 33 30 28 29 30 29 28 28 27 26 26 27 29 33 34 35 35 37 39
24 24 23 23 24 26 28 26 26 26 26 26 26 28 28 31 32 34 36 38 35 33 31 28 24 23 24 26 27 27 27 27 28 28 28 29 31 34 36 36 37 38 39 42
28 26 23 22 21 23 24 26 25 24 23 23 22 21 21 21 21 22 24 25 24 21 18 18 21 23 24 26 26 27 27 28 28 30 31 34 35 37 38 39 40 42 43 45
25 25 24 23 24 25 26 24 24 24 18 16 13 12 13 13 14 14 14 13 13 14 16 19 21 23 24 25 26 28 30 31 32 35 36 38 40 42 43 44 45 46 47 47
32 31 28 27 26 29 29 23 14 12 10 10 9 8 8 7 7 6 7 9 12 15 17 19 20 22 26 29 31 31 31 34 37 40 42 44 45 46 47 47 48 47 47 46
25 27 31 29 28 24 15 11 8 6 4 4 4 3 2 3 5 7 10 12 14 16 19 21 25 27 28 30 34 35 38 41 43 45 47 48 48 48 47 47 46 46 45 44
20 22 22 18 14 10 8 6 5 3 2 1 1 2 4 5 7 9 11 14 17 20 23 25 29 32 34 37 40 42 45 47 48 48 48 47 47 47 47 46 44 43 41 39
16 13 11 9 7 6 7 6 5 4 3 2 2 4 6 8 10 12 16 19 23 28 30 33 35 37 40 43 45 47 47 48 48 48 48 47 45 44 43 41 39 38 37 35
12 13 11 11 9 8 7 6 4 2 1 3 5 8 10 13 17 21 24 28 31 34 36 38 40 41 43 45 46 46 46 47 46 46 45 43 41 39 38 37 36 35 33 31
13 12 10 9 7 6 5 3 2 4 6 8 12 15 18 21 24 26 29 31 34 38 41 41 41 41 42 44 45 46 46 46 45 44 42 40 38 36 35 33 32 31 29 28
10 8 7 6 5 3 2 4 6 9 12 15 17 19 22 24 27 30 32 34 35 35 36 39 41 43 44 44 44 45 45 44 43 41 39 36 33 32 30 29 28 27 27 26
7 6 5 3 3 5 7 9 12 15 17 18 21 23 26 28 29 30 31 32 33 35 37 39 40 41 43 45 46 45 44 42 39 36 33 30 29 27 26 25 25 24 24 23

GFSNGP_700_spd_078.txt.gz
Wind_Speed
44 38 31 21 17 33 45 40 37 35 34 26 23 21 16 17 25 20 17 20 18 21 23 20 19 18 15 13 14 16 20 21 23 26 26 24 25 27 27 28 27 26 27 29
35 40 40 23 28 28 40 37 34 33 31 26 26 21 24 21 16 20 21 22 20 18 19 23 21 22 23 22 22 18 19 23 23 25 26 27 28 30 30 29 29 30 32 35
25 31 31 25 40 32 31 29 33 33 28 29 23 21 22 22 19 17 20 21 18 15 17 17 23 26 27 27 26 24 22 22 24 26 29 32 32 32 32 33 34 35 38 41
11 20 9 28 26 23 36 26 23 24 20 26 25 30 19 20 21 18 18 21 17 15 18 21 23 27 29 30 31 32 29 29 31 33 34 36 35 34 35 35 36 37 35 33
16 20 13 23 19 22 26 31 22 25 19 17 18 20 20 16 17 16 17 14 15 18 21 21 22 23 26 27 29 32 32 34 35 35 32 31 30 31 31 30 31 32 31 29
14 15 9 27 36 20 12 22 21 25 27 17 24 23 21 18 13 16 17 17 18 22 23 20 21 22 24 25 27 29 33 32 28 26 24 22 23 25 28 30 30 28 28 29
17 10 11 6 11 30 26 17 19 16 21 19 22 19 17 14 14 19 21 21 19 19 19 18 18 20 23 26 28 29 27 24 24 23 23 24 25 26 28 28 28 29 31 32
10 6 12 19 11 21 28 28 25 17 14 18 16 20 20 19 17 19 19 17 15 17 18 18 20 21 23 25 26 25 25 26 26 26 26 26 27 29 29 30 31 32 32 33
9 15 6 20 21 12 13 4 22 34 31 24 20 19 14 16 17 17 18 18 18 20 22 24 23 23 25 25 25 27 28 29 30 29 30 30 31 31 32 33 33 33 34 35
22 20 19 20 21 18 22 13 15 24 18 19 18 16 14 13 15 17 19 19 22 24 26 26 27 26 28 28 27 30 32 33 34 33 34 34 34 34 33 33 34 36 38 38
30 28 25 26 27 28 26 26 30 24 22 17 15 11 11 13 16 19 20 23 25 26 28 29 30 31 32 32 31 32 34 36 37 37 37 37 37 37 36 37 39 41 41 39
22 15 19 12 12 23 32 30 28 29 36 34 21 17 14 17 17 19 23 26 28 28 29 31 32 32 34 35 36 37 36 36 36 37 37 38 39 40 42 46 48 41 39 42
25 24 16 16 21 6 17 11 18 25 27 32 37 29 16 21 25 28 29 31 29 30 30 31 31 32 35 37 38 39 38 39 38 36 37 39 43 44 40 37 39 40 41 40
28 24 20 18 15 15 16 13 11 13 15 16 21 27 27 26 24 25 27 29 28 28 29 29 30 32 33 33 34 37 38 37 36 35 34 34 34 34 35 35 36 37 36 36
19 28 27 25 23 21 21 20 20 20 21 24 25 25 25 24 23 23 23 24 24 26 27 29 30 29 28 28 29 31 33 33 33 31 29 29 31 33 34 34 35 36 37 39
25 25 24 23 22 19 19 20 21 17 14 15 17 18 18 18 18 19 21 22 24 26 28 28 26 26 28 31 32 31 28 25 24 25 27 28 29 31 33 35 37 39 42 43
36 33 28 23 20 21 21 22 19 19 15 15 15 15 16 18 18 19 21 22 25 28 27 26 27 29 27 23 19 18 19 22 24 26 28 29 31 34 38 41 42 43 44 45
39 36 31 28 24 20 18 17 16 15 14 12 13 15 16 19 19 21 22 24 24 23 23 24 20 15 14 14 17 19 21 23 26 28 32 35 38 40 41 43 45 46 47 49
24 25 22 20 20 20 18 17 16 16 15 14 15 16 21 20 20 20 20 20 20 19 14 12 11 12 15 17 19 22 25 28 32 35 38 41 43 45 47 48 49 51 52 52
21 21 21 21 20 19 18 19 20 21 23 22 19 18 19 19 18 17 15 12 10 9 9 11 13 15 18 21 25 28 32 35 38 41 44 46 47 49 49 50 51 51 51 51
20 22 22 23 21 23 26 27 27 22 18 17 17 16 15 13 11 8 6 6 6 8 10 14 17 21 25 29 32 35 37 40 42 43 44 45 47 48 50 50 51 51 51 49
26 26 25 25 27 29 30 27 22 19 17 15 14 12 10 7 5 2 3 7 10 13 16 19 23 27 30 33 36 37 37 38 40 43 45 47 48 49 49 49 49 49 47 45
16 18 22 25 25 25 22 17 17 16 14 13 11 8 5 1 2 6 9 12 15 18 21 25 28 30 31 31 33 35 38 40 42 43 44 45 46 47 46 46 44 42 40 38
14 15 17 18 19 19 19 19 16 14 11 8 5 2 2 5 8 11 14 16 20 23 24 25 25 27 30 32 34 36 38 39 40 41 41 42 41 40 38 36 34 31 29 29
22 23 22 20 18 16 15 15 12 8 5 3 3 4 7 9 12 16 18 20 21 20 21 23 25 27 29 31 34 35 36 36 37 37 37 37 35 33 30 27 26 26 25 25
19 19 19 17 14 13 10 8 5 5 3 3 5 8 12 14 17 18 18 18 19 20 22 24 26 28 30 32 32 32 33 33 34 34 33 31 29 26 25 24 24 24 23 23
18 16 15 12 10 7 5 5 3 3 5 8 11 13 14 14 14 14 16 18 20 22 24 26 27 29 29 30 31 31 31 31 30 29 28 27 26 25 24 24 23 23 22 21

GFSNGP_700_spd_081.txt.gz
Wind_Speed
29 34 36 29 30 31 26 31 30 34 39 39 30 25 22 23 24 19 22 24 18 15 14 15 17 15 15 14 11 14 15 16 18 19 20 22 23 26 27 27 27 26 27 29
21 29 35 39 31 33 26 18 26 40 42 36 35 31 28 25 23 20 19 19 21 19 15 13 13 15 16 19 20 19 19 19 19 22 23 24 25 27 29 30 29 30 31 31
20 21 31 22 49 46 43 28 18 35 43 38 28 30 26 23 27 26 20 18 20 21 16 15 15 14 16 19 20 21 22 22 23 24 25 27 28 31 33 36 35 34 34 35
7 11 4 33 35 40 46 53 36 31 26 26 27 27 29 25 26 23 22 19 20 20 19 17 17 19 21 21 20 22 24 27 27 27 28 30 33 35 37 37 37 37 37 37
6 15 8 12 19 25 28 41 36 36 25 19 23 21 26 29 30 21 18 16 18 19 18 19 19 20 20 21 21 23 24 26 29 31 33 35 36 35 31 28 30 31 31 30
17 4 8 8 9 21 19 29 29 32 25 21 21 20 18 19 24 23 21 17 19 22 21 18 16 19 19 19 21 23 26 29 30 33 35 34 31 27 25 25 26 28 28 27
21 16 8 12 10 14 17 11 18 31 16 21 31 26 18 19 20 19 18 18 23 22 19 17 18 18 17 17 21 24 26 29 31 32 30 28 25 24 26 27 28 28 30 31
9 13 10 7 10 6 16 30 11 12 30 16 24 23 20 13 15 18 19 22 22 17 15 15 15 16 19 21 23 26 28 29 28 27 27 27 28 29 30 30 31 32 33 34
10 22 2 6 20 19 11 3 26 31 26 22 21 16 17 16 17 22 24 20 16 13 14 15 16 18 21 22 25 27 28 28 28 28 29 31 32 33 33 34 34 35 36 37
17 19 13 13 13 16 14 13 3 5 22 30 24 32 17 16 17 23 22 19 16 15 15 16 18 21 23 26 27 28 29 29 29 31 33 34 35 35 36 37 37 38 39 40
20 25 21 20 22 19 25 29 22 13 12 7 16 21 23 20 20 22 21 17 15 15 16 18 21 23 26 27 28 28 28 28 29 31 32 33 34 36 38 39 39 41 44 47
19 12 20 19 19 15 17 14 24 26 24 20 15 12 18 22 20 18 19 18 15 16 16 18 24 28 30 29 28 28 28 26 24 26 29 31 31 32 34 37 41 44 46 45
27 25 24 16 19 16 14 14 14 22 26 28 24 14 18 27 16 14 16 19 20 25 32 38 28 29 27 27 27 27 25 23 25 25 24 26 28 29 32 37 39 41 41 42
20 23 28 17 15 17 17 18 17 14 12 15 21 20 23 21 28 32 22 22 22 24 22 22 23 24 25 26 26 24 24 24 25 27 30 33 35 35 35 35 36 37 38 40
23 18 18 22 21 20 18 17 15 13 14 16 20 20 18 18 20 20 21 21 20 20 21 23 24 25 25 25 25 24 25 28 32 35 33 31 29 28 30 32 35 36 38 39
30 26 21 22 22 21 23 19 18 18 17 16 15 13 13 13 13 15 17 19 20 20 21 24 25 25 25 24 24 28 32 33 29 26 25 27 28 30 32 34 36 39 42 44
32 30 27 19 15 19 18 18 19 18 19 18 18 17 15 15 16 17 18 19 20 23 26 25 23 23 24 27 30 27 22 21 23 25 27 28 31 33 37 40 43 46 49 51
22 26 27 19 19 19 21 20 17 16 14 14 15 14 13 13 15 17 21 24 26 26 23 22 22 24 25 20 18 19 20 22 24 27 30 34 37 40 43 45 47 49 50 52
26 25 24 24 26 27 25 21 18 16 14 16 15 16 14 15 17 20 24 22 21 19 20 21 18 14 14 16 19 21 23 26 30 33 36 39 42 43 44 46 48 50 52 53
28 27 25 26 28 24 19 16 19 19 19 22 23 24 23 19 21 20 18 17 17 15 11 10 11 14 17 20 23 26 29 32 35 37 38 39 41 43 46 48 49 51 52 53
26 24 25 24 20 15 16 19 22 22 24 29 27 20 17 19 18 16 13 9 6 6 8 12 16 19 22 25 27 30 32 33 34 36 39 41 43 45 46 48 49 50 49 49
12 12 12 16 17 20 21 24 19 25 25 23 17 14 12 11 10 7 5 4 7 10 14 17 20 23 26 28 28 29 31 34 36 38 40 41 42 43 44 44 44 43 41 40
15 15 14 17 19 19 20 23 20 17 14 13 13 12 11 8 5 4 5 8 11 14 17 21 23 24 25 26 29 31 34 35 36 37 38 39 40 40 40 40 39 37 34 31
13 14 15 16 16 16 19 18 17 17 15 13 11 8 5 3 4 6 9 12 15 18 20 21 21 23 26 28 30 31 32 33 34 35 36 36 37 37 36 34 32 30 29 28
14 15 15 16 18 21 21 20 18 15 11 7 5 1 3 5 8 11 14 16 17 17 18 20 22 24 25 26 28 29 31 32 33 34 34 33 32 31 30 29 28 28 27 27
24 25 24 23 21 20 18 16 11 8 6 3 4 4 8 10 12 14 14 14 15 17 19 20 21 23 24 26 28 30 31 31 32 31 30 29 28 27 27 27 26 26 26 26
22 21 20 19 17 13 10 8 5 5 3 4 7 9 11 12 12 12 13 14 16 17 18 20 22 23 25 27 28 29 30 29 28 27 26 25 25 25 25 26 25 25 25 25

GFSNGP_700_spd_084.txt.gz
Wind_Speed
29 28 29 37 35 26 38 40 29 27 32 31 29 29 21 22 19 14 19 18 17 19 11 9 8 7 7 7 6 7 9 11 11 12 15 18 21 23 24 25 25 25 27 27
32 31 23 34 36 37 34 38 39 34 28 29 20 27 30 32 27 24 22 24 20 21 18 16 10 7 7 8 12 14 14 16 16 17 19 20 22 23 25 25 27 27 30 31
25 28 31 24 40 45 40 38 38 36 29 19 37 40 36 31 34 33 28 25 21 21 21 20 15 14 14 12 14 17 18 19 20 21 23 24 25 26 27 28 30 32 35 35
20 26 9 25 31 38 42 43 45 44 39 24 25 32 29 28 28 29 26 25 26 22 22 21 18 17 17 18 20 21 22 22 23 25 29 30 29 28 30 32 35 37 38 34
8 11 25 19 15 26 31 45 45 50 47 43 24 22 27 24 27 32 26 22 24 22 23 23 20 20 22 22 23 24 24 24 25 28 29 29 31 33 34 36 37 33 27 28
12 4 6 21 14 14 20 30 25 29 33 39 29 31 25 20 26 24 30 22 22 22 24 26 24 26 25 22 20 19 19 20 22 24 27 30 32 34 33 29 25 24 25 27
25 11 16 19 23 10 18 13 9 19 16 19 30 33 23 18 19 19 26 28 26 24 25 27 27 27 24 21 19 17 19 21 23 25 28 30 32 30 25 24 25 27 29 30
16 12 11 14 21 1 3 5 18 19 12 23 18 26 16 16 15 18 21 22 24 27 28 29 27 25 22 20 18 17 19 20 22 24 26 27 27 27 27 28 30 31 32 32
8 8 16 17 24 13 14 10 9 18 20 13 24 20 8 25 16 19 21 16 21 26 25 25 23 22 20 19 18 18 19 21 23 25 25 25 25 27 29 30 32 32 33 35
24 21 18 20 21 20 24 18 21 4 14 17 16 22 18 20 24 23 28 32 31 30 26 24 21 21 19 18 18 19 22 25 27 27 26 26 27 28 29 31 32 34 35 37
23 28 18 14 13 20 14 9 16 19 7 3 8 12 20 25 19 22 22 29 27 24 23 20 18 17 17 18 20 23 27 28 28 28 25 23 22 22 22 23 25 26 30 33
27 22 23 12 14 16 16 8 9 10 19 12 14 2 4 14 20 15 16 17 22 14 13 15 16 15 20 24 27 29 30 28 27 26 23 21 21 21 23 25 28 30 33 36
23 25 27 21 20 16 15 13 12 11 12 16 12 16 20 10 9 9 11 23 34 25 16 19 20 19 17 20 24 27 27 25 25 25 24 24 25 27 30 31 33 35 37 39
19 24 29 21 29 23 15 10 13 17 16 20 8 13 14 13 20 21 19 22 23 19 15 17 19 17 20 23 24 26 27 25 23 22 24 27 30 32 32 32 32 32 34 36
19 22 28 23 18 21 18 13 13 12 9 6 9 15 14 17 18 19 19 18 17 21 22 16 16 18 20 23 24 23 23 21 23 26 29 30 27 25 26 28 30 32 34 37
19 19 22 27 21 16 19 18 14 14 15 10 8 13 15 16 14 16 20 21 20 19 17 19 19 19 21 19 19 20 21 25 26 25 22 22 24 26 28 31 34 38 41 43
25 22 21 28 19 18 16 16 15 14 12 14 15 15 16 16 14 14 14 16 16 17 19 19 22 20 18 17 19 22 23 21 19 21 23 25 28 31 35 37 40 42 43 45
28 24 22 22 24 25 19 12 13 14 15 15 12 13 13 13 13 13 14 16 19 21 23 22 17 16 17 19 19 16 16 19 21 24 27 31 34 36 37 38 40 43 45 47
25 22 20 19 22 27 22 18 17 18 16 12 11 12 14 12 14 15 17 19 23 23 17 15 14 15 14 12 13 16 20 23 26 29 32 33 34 36 38 40 41 43 44 46
21 20 19 16 21 25 25 22 21 19 17 15 16 16 21 22 19 19 21 21 17 14 12 11 10 9 11 15 18 21 24 27 29 29 31 33 35 36 37 39 41 42 43 43
17 13 17 23 23 25 26 25 21 19 18 18 17 19 22 21 19 17 15 12 11 10 8 7 10 12 16 19 22 24 25 27 28 30 31 32 34 36 38 39 39 39 39 39
10 13 23 25 23 29 28 31 19 18 22 21 16 20 16 13 12 10 9 7 6 7 9 11 13 16 19 21 22 23 25 27 28 30 32 34 35 35 35 35 35 35 36 35
12 12 4 6 13 24 22 12 17 18 18 15 13 12 10 9 9 8 6 6 6 8 12 15 17 18 19 20 22 24 26 27 29 31 32 33 33 33 33 33 33 33 32 31
13 14 12 14 15 17 18 17 18 18 16 15 14 14 12 9 7 6 4 6 9 13 14 14 15 17 19 21 23 25 26 28 29 30 31 31 31 31 32 31 31 31 30 29
12 13 14 15 15 16 16 17 17 18 17 16 14 11 8 6 0 4 8 10 11 11 12 14 16 19 21 23 24 25 27 28 29 29 30 30 30 30 30 30 29 29 27 27
13 15 18 19 19 21 22 21 17 16 13 9 7 3 4 5 6 8 9 9 9 11 14 16 19 20 21 22 24 25 26 27 28 29 29 29 28 28 28 28 27 26 25 25
24 23 22 22 21 19 16 13 10 8 6 5 4 4 6 7 7 7 8 9 11 14 16 17 19 20 21 22 23 25 25 26 27 28 28 27 27 27 27 26 24 23 24 24

GFSNGP_700_spd_087.txt.gz
Wind_Speed
17 21 25 28 28 26 32 36 28 25 27 24 32 32 28 21 13 18 24 22 21 20 19 12 12 12 11 9 9 11 12 10 10 12 14 18 23 26 28 29 30 31 31 30
19 18 22 29 28 30 37 39 42 31 36 28 25 22 27 30 28 22 20 18 22 22 20 22 16 15 14 14 12 11 12 12 14 16 17 17 21 23 25 26 27 28 30 30
9 3 13 21 31 26 36 41 46 37 31 20 20 23 28 28 28 29 25 30 24 22 23 24 23 21 18 17 16 17 17 18 19 19 22 21 23 25 25 26 28 29 30 31
14 16 9 33 23 15 26 29 34 40 33 27 24 18 23 29 33 36 33 31 34 27 30 25 27 28 25 24 23 20 20 20 22 23 24 26 26 28 28 30 31 32 33 36
7 12 23 29 20 18 22 25 20 32 39 43 41 40 36 30 27 28 28 25 26 30 31 32 29 30 30 27 25 24 25 26 26 27 29 30 31 32 33 33 34 36 37 40
11 9 6 8 12 14 19 28 12 7 12 18 24 39 49 35 28 27 28 27 31 28 31 31 31 32 32 30 29 28 29 28 26 24 24 24 25 28 31 34 35 37 39 29
26 16 18 19 17 13 11 18 11 7 6 12 18 23 22 27 37 25 26 29 35 35 34 33 32 35 33 33 31 30 29 26 23 22 21 22 23 24 26 27 27 24 24 26
24 14 13 10 15 12 14 21 15 7 8 13 15 16 12 24 23 23 22 22 27 35 31 35 36 34 34 33 31 30 27 23 23 21 21 22 24 25 25 23 21 23 26 29
12 8 12 14 21 17 19 17 18 16 5 15 18 24 19 19 19 21 16 16 14 19 28 28 30 32 31 28 25 23 24 24 23 22 22 23 23 24 24 24 25 26 27 27
21 24 29 24 19 20 21 18 21 16 16 11 15 19 27 22 20 21 20 17 15 11 19 21 21 20 20 25 28 31 26 21 21 21 21 22 23 23 24 24 24 24 24 26
24 25 21 18 23 17 15 16 18 15 14 21 11 13 21 23 23 27 22 14 23 29 31 32 36 37 29 25 27 21 20 19 19 21 23 23 21 20 20 20 20 20 22 25
26 25 21 20 17 17 22 16 16 12 12 17 24 5 18 25 22 15 13 20 24 23 18 20 19 20 18 21 18 16 18 19 23 19 18 18 17 17 17 18 21 23 25 27
24 19 22 22 23 22 21 20 16 11 9 18 22 10 7 5 9 11 21 15 18 17 19 20 18 18 19 21 18 16 18 17 18 18 16 16 17 20 22 25 26 26 27 29
16 17 21 15 21 20 19 17 17 9 8 9 14 10 13 4 7 4 6 11 14 17 12 19 29 24 19 14 16 17 18 20 18 15 16 19 22 24 24 22 22 23 26 29
21 22 21 21 22 20 16 15 16 15 9 10 9 7 8 7 8 4 9 7 5 6 5 9 9 11 14 14 12 14 15 17 16 18 21 22 20 18 20 22 24 28 32 35
16 18 19 20 19 18 17 17 17 18 16 16 13 11 9 9 14 12 7 12 14 15 18 17 9 11 12 12 15 16 16 16 18 19 17 16 17 20 23 26 29 32 33 35
27 26 26 22 23 20 20 19 18 19 17 15 13 10 12 12 14 18 18 17 16 20 18 16 14 12 14 17 16 14 16 16 15 14 16 19 22 25 27 28 30 32 35 36
30 31 31 27 26 24 25 22 20 14 18 17 16 14 13 12 11 12 10 9 10 10 11 15 17 18 15 13 14 14 13 12 15 18 21 23 25 26 28 30 31 32 34 36
29 30 28 26 24 26 24 26 22 17 16 15 17 14 12 12 13 12 11 12 13 15 16 17 15 13 12 12 12 11 13 16 19 21 22 24 26 27 28 29 31 33 35 36
27 26 25 22 23 24 22 26 23 20 19 17 19 17 14 13 14 17 17 17 16 15 12 11 10 10 9 10 11 13 16 18 19 21 23 24 25 27 29 31 32 33 34 34
18 19 19 21 23 24 22 27 25 27 29 24 24 19 18 16 19 22 16 14 12 10 9 8 7 8 9 11 14 15 16 18 20 21 22 24 26 28 29 30 31 32 32 32
13 12 13 17 18 24 28 28 29 28 27 26 22 20 19 19 19 15 13 10 8 7 6 6 7 8 11 12 13 15 17 19 20 21 22 25 26 27 28 29 30 29 29 28
13 12 12 7 10 18 23 28 27 26 27 24 21 19 18 15 13 11 9 8 8 7 4 6 9 10 11 13 14 16 17 18 20 22 24 25 26 27 28 27 27 27 27 27
10 10 8 7 7 11 14 20 21 20 18 20 19 18 14 11 11 10 9 6 1 5 7 8 9 10 12 14 15 16 18 19 21 22 24 25 26 26 25 25 25 26 26 25
6 4 5 5 8 12 16 19 19 18 16 15 15 15 12 9 7 3 2 4 4 5 6 8 10 12 13 15 16 17 18 20 21 23 24 24 24 24 24 24 25 25 24 24
9 11 15 17 17 19 20 21 19 20 17 13 11 9 7 4 4 2 3 4 4 6 7 9 11 13 14 14 16 17 19 21 22 22 22 22 23 24 24 24 25 24 23 23
20 21 22 23 23 22 21 18 14 12 11 9 7 5 4 1 2 3 3 4 5 7 9 11 12 13 14 15 17 19 20 20 21 21 22 22 23 24 24 24 24 23 23 23

GFSNGP_700_spd_093.txt.gz
Wind_Speed
18 19 17 16 15 17 20 20 21 19 20 19 18 16 18 20 18 15 12 13 14 21 22 21 20 23 24 23 22 22 23 25 27 28 26 26 27 28 28 28 26 25 26 27
17 17 19 24 27 28 28 27 28 26 28 21 24 28 29 28 22 23 18 21 15 17 21 24 22 23 24 22 21 20 19 20 23 25 28 27 28 27 29 29 29 32 34 34
14 10 10 15 21 22 26 30 31 31 25 22 23 23 23 25 26 26 23 21 21 20 16 23 26 27 28 24 26 24 21 20 20 22 22 22 23 24 26 30 33 32 32 35
8 4 6 11 7 11 15 14 18 28 25 19 20 22 27 24 24 23 25 20 21 19 26 33 32 26 32 33 29 29 27 25 22 22 21 22 25 27 28 30 31 30 31 33
6 11 15 20 9 5 6 10 6 7 12 15 19 21 24 20 21 21 27 29 27 22 25 26 28 29 26 29 28 30 33 31 29 29 28 29 29 30 31 32 34 35 35 35
10 8 5 8 3 6 6 9 3 6 11 12 13 17 14 22 24 28 36 38 38 38 38 40 35 35 34 39 30 33 36 39 37 36 34 34 33 33 33 34 35 35 37 38
20 11 11 15 13 11 8 2 9 10 12 13 21 24 29 26 29 38 51 40 41 39 37 42 45 42 39 44 48 42 44 42 44 42 40 39 38 37 35 34 34 34 36 36
18 9 12 6 5 4 6 10 14 16 16 20 19 26 28 28 34 36 35 39 44 46 43 42 43 41 46 42 45 52 48 44 48 43 46 43 41 40 37 35 33 33 36 37
14 15 12 8 10 11 15 15 16 19 20 22 24 23 26 25 24 23 25 25 27 32 43 50 48 41 40 43 40 40 42 44 43 43 46 47 40 37 35 35 33 32 35 36
12 12 14 16 13 15 17 15 18 22 24 31 24 26 19 14 15 22 22 23 19 22 29 34 41 44 43 42 43 39 42 43 43 46 42 39 37 35 31 29 30 32 40 33
16 15 14 13 11 10 15 17 19 22 24 29 29 27 18 22 22 28 26 24 22 19 17 22 28 34 38 39 40 38 39 37 36 35 34 32 28 27 26 28 31 33 28 25
12 11 11 13 15 17 16 18 22 20 18 33 30 26 19 26 22 21 25 27 27 22 17 20 20 22 27 29 30 29 31 32 30 32 30 24 30 31 24 21 19 20 22 24
12 12 15 17 15 13 16 19 21 20 17 23 31 11 15 16 18 18 23 26 25 25 25 24 27 27 31 34 33 31 26 24 23 25 17 13 12 13 15 16 18 21 24 26
11 15 18 16 17 17 20 27 20 19 19 19 27 20 15 17 16 22 20 18 31 32 35 34 40 38 36 30 27 22 17 13 8 5 7 10 13 13 14 16 18 19 18 19
16 20 19 16 17 14 20 20 21 22 22 20 17 14 22 19 18 15 18 12 10 13 12 15 21 21 17 17 14 8 8 6 7 8 8 9 11 13 14 15 15 17 19 21
24 22 19 20 23 25 24 27 28 28 26 22 23 20 16 26 12 17 12 15 6 6 9 10 16 13 11 11 10 11 7 3 7 9 10 11 12 14 14 15 17 19 21 23
25 24 26 27 30 28 28 30 32 34 31 26 24 23 19 18 19 12 14 15 24 11 14 13 19 16 12 13 11 10 10 9 9 9 11 12 13 13 15 17 19 20 21 22
32 33 36 33 32 30 29 31 28 30 29 27 26 25 24 19 19 17 12 16 20 21 13 13 14 13 11 11 12 11 10 10 10 10 10 11 13 14 16 17 18 19 21 23
27 27 28 29 30 32 33 32 30 27 27 28 28 26 25 23 24 18 15 15 16 11 11 16 16 15 13 12 11 11 11 10 10 10 11 12 13 14 15 16 18 19 21 22
23 23 25 27 31 32 31 29 29 27 26 26 27 29 28 26 26 25 17 17 17 18 17 17 16 13 11 9 8 9 9 8 9 10 11 12 13 14 16 17 19 20 21 23
23 23 23 26 30 30 28 27 27 26 25 24 24 25 26 23 30 28 27 23 22 21 18 16 13 11 9 8 8 8 7 9 10 11 12 13 14 16 17 18 19 21 22 23
23 23 28 29 28 27 25 22 21 20 20 19 23 25 24 24 26 30 27 25 23 18 15 14 11 9 8 7 6 7 9 10 11 12 13 14 15 16 17 19 20 21 22 22
28 28 25 22 23 22 22 21 20 18 18 21 20 20 20 22 24 20 18 15 15 14 13 11 9 6 3 4 6 8 10 11 12 12 14 15 16 17 18 19 20 21 21 22
25 22 19 18 20 19 19 18 18 17 13 12 12 13 14 15 18 18 16 13 12 10 9 6 4 3 4 6 8 9 10 11 13 14 15 16 17 18 19 19 19 20 21 22
15 13 12 13 12 10 10 9 10 11 12 15 17 19 19 18 15 13 12 12 10 6 3 1 3 4 6 8 10 11 13 13 14 15 16 17 17 17 18 18 20 21 22 22
8 6 5 6 7 9 11 14 16 18 18 18 19 18 17 15 13 13 12 8 5 4 3 4 6 7 9 10 11 12 13 14 15 16 17 17 17 18 19 19 20 21 22 23
6 10 12 14 17 17 18 18 18 18 18 16 13 13 12 12 11 9 5 3 2 4 6 6 8 9 10 12 13 14 15 16 16 17 17 17 18 18 19 20 20 21 22 23